GFSSGP_850_rhum_102.txt.gz
RH
9 14 15 23 17 15 12 8 6 5 6 6 7 7 8 9 18 28 26 30 31 20 18 16 16 14 14 15 22 35 53 62 70 74 73 68 69 60 57 56 62 65 71 74 77 71 69 66 64
8 26 27 14 16 16 11 7 6 4 5 10 10 9 8 9 17 26 31 32 37 16 18 17 17 14 14 17 24 38 54 63 72 77 76 73 72 69 63 61 64 70 76 77 75 74 67 64 60
8 27 19 13 13 15 13 6 4 4 9 9 8 9 8 9 13 22 29 35 46 22 15 17 16 14 14 18 28 39 56 65 74 77 77 76 76 75 70 71 70 76 81 78 73 74 65 66 63
14 30 18 14 13 9 8 7 5 4 7 8 7 8 9 17 18 28 32 37 43 51 17 18 16 16 15 19 29 42 59 66 72 77 78 79 78 79 76 78 85 85 95 92 84 78 71 69 70
25 17 17 13 10 8 7 6 5 5 5 7 7 8 10 15 20 33 32 39 48 51 21 19 17 17 18 21 27 43 58 64 65 68 70 72 78 80 80 81 85 76 74 82 87 98 86 77 76
22 16 16 15 11 8 6 5 5 6 7 7 7 8 9 17 20 34 35 42 50 45 22 20 18 17 20 22 25 42 59 64 65 68 71 74 81 83 86 83 83 84 80 69 63 72 70 75 83
21 18 18 15 12 9 7 6 6 6 7 7 8 8 8 22 24 33 42 46 54 58 23 20 19 18 20 22 23 40 60 66 62 64 72 82 85 86 88 86 86 80 85 76 66 70 62 62 86
22 18 20 16 14 12 7 6 5 6 7 6 7 8 10 20 26 36 47 54 60 60 32 22 21 20 20 24 24 37 57 66 66 64 69 81 86 88 88 86 82 79 80 81 80 70 64 67 71
22 24 24 19 17 13 8 7 6 6 7 6 6 8 19 28 38 43 49 60 71 64 36 25 24 22 21 24 29 40 54 63 66 67 69 77 86 92 91 86 82 83 84 83 83 76 68 64 67
20 26 25 16 13 12 10 8 7 6 7 7 6 7 22 27 40 47 51 63 77 86 67 35 28 27 29 33 30 50 53 60 68 69 68 77 81 88 92 91 88 88 75 89 81 74 73 71 80
21 24 20 16 14 12 11 9 7 7 8 7 8 9 19 24 29 44 47 55 68 79 86 45 37 31 39 45 39 56 69 61 68 74 71 74 78 85 97 98 94 91 79 84 80 79 77 77 74
22 19 18 17 15 14 12 11 10 8 9 8 8 8 14 22 23 29 38 44 52 63 76 55 38 33 43 82 46 62 80 81 96 86 81 82 82 86 92 100 94 94 86 81 80 81 82 86 86
16 18 18 17 16 15 14 13 12 11 10 9 9 8 9 16 14 15 22 29 36 46 56 48 45 37 44 77 60 69 83 93 99 91 85 82 87 93 90 94 94 96 92 90 89 89 90 88 88
14 14 16 16 14 15 15 14 13 12 12 12 11 10 9 9 12 12 13 17 23 34 45 39 40 46 46 63 61 52 45 66 79 76 74 78 82 91 93 90 96 91 92 89 90 89 91 82 81
17 17 15 17 15 15 15 17 16 14 13 13 13 12 11 10 8 10 11 12 15 20 45 42 37 42 41 63 62 55 45 47 67 63 78 78 83 82 85 88 88 84 86 88 86 83 87 88 79
19 20 23 17 16 16 17 25 17 14 14 13 13 13 13 12 10 8 10 11 13 16 25 44 41 35 41 54 86 54 50 57 78 64 74 81 83 85 78 82 82 84 86 90 86 79 82 89 81
22 28 26 22 16 18 19 23 18 16 14 14 14 14 14 14 11 9 10 10 12 14 18 39 40 31 38 51 90 84 53 57 68 85 87 85 82 79 84 86 88 93 91 95 88 79 85 82 88
28 27 24 23 17 18 20 21 17 15 15 14 14 14 14 14 14 12 10 10 11 13 15 42 42 35 48 49 76 95 90 72 70 92 88 84 82 78 79 83 85 97 87 98 94 82 81 84 85
22 22 24 20 32 30 27 20 16 14 14 15 14 14 14 14 14 13 12 11 11 13 16 34 49 45 40 60 54 96 72 67 55 59 86 99 79 73 71 85 79 91 95 98 94 84 82 92 92
19 26 27 39 35 36 38 44 30 16 16 14 14 15 16 16 16 16 16 15 14 14 16 24 52 56 48 59 62 95 96 67 63 66 76 74 80 84 81 84 85 90 98 99 96 88 86 90 96
17 23 42 43 44 70 62 61 38 22 15 14 15 15 15 16 17 17 18 19 21 20 20 18 29 61 58 58 88 99 100 98 96 93 85 92 92 88 87 87 88 97 99 94 98 88 87 92 96
21 17 34 40 79 85 33 62 30 22 20 17 15 16 16 17 25 25 28 28 29 28 24 28 24 37 64 60 79 98 93 94 93 96 92 89 89 89 89 90 93 98 99 99 100 96 92 95 96
17 18 31 31 55 66 50 75 40 21 19 18 16 20 29 31 35 37 37 37 37 37 33 28 30 31 52 60 69 81 94 96 94 96 92 93 83 79 88 87 94 98 99 100 98 100 94 94 89
15 40 42 43 48 92 59 53 32 24 22 19 22 28 32 34 39 42 44 46 47 48 46 41 33 34 43 52 72 80 88 91 91 93 93 89 80 79 88 88 94 89 100 100 98 100 97 92 89
26 44 56 71 88 66 28 29 30 23 18 26 30 29 37 42 46 48 52 56 62 63 55 54 44 41 48 56 76 81 92 85 85 86 84 76 65 75 87 86 86 92 97 100 100 98 98 86 89
30 36 58 50 50 39 22 63 50 30 28 29 33 45 45 43 51 56 64 73 83 86 82 71 54 48 56 69 85 84 94 83 82 79 79 80 64 77 87 97 88 98 99 100 100 100 100 100 100
28 36 34 99 67 89 51 71 45 48 32 35 39 47 49 51 59 64 75 90 99 97 81 74 52 60 65 80 87 93 87 83 82 80 89 82 81 80 88 98 90 100 100 100 100 100 100 93 93
32 30 72 93 96 96 46 52 64 60 41 42 50 52 60 63 66 72 86 99 100 100 98 60 53 72 72 80 90 88 92 87 86 83 84 86 87 87 96 97 98 98 98 100 98 96 90 85 89
42 69 70 67 56 77 69 98 78 67 61 57 59 65 68 69 72 81 96 99 100 100 100 93 84 83 86 85 82 86 100 90 86 85 86 89 88 88 94 98 100 99 89 97 92 86 90 97 97
39 52 50 86 42 66 94 100 68 62 54 63 68 74 79 84 89 95 100 97 98 100 100 99 99 100 90 85 85 98 100 94 89 95 92 91 88 90 84 86 98 100 100 99 99 91 90 90 98

GFSSGP_850_rhum_105.txt.gz
RH
5 9 15 28 30 32 30 19 12 10 8 9 8 10 10 18 30 50 39 30 21 18 17 15 15 14 13 14 17 26 39 54 64 70 70 68 67 60 55 54 58 62 64 69 73 75 73 71 66
6 11 28 30 28 32 28 17 14 9 10 10 9 8 9 25 30 38 32 31 16 18 17 16 16 14 14 16 17 24 38 54 67 74 73 73 70 71 64 62 64 68 73 75 78 77 72 68 65
7 20 28 35 29 28 26 15 12 9 10 9 9 8 9 21 29 32 25 24 17 18 16 16 17 14 13 16 18 23 40 58 71 76 74 74 75 76 71 70 73 81 86 85 80 72 71 67 70
10 26 29 28 27 20 15 12 9 9 9 8 8 9 12 18 29 31 32 14 16 17 16 17 17 15 16 18 19 25 40 58 72 76 76 78 77 81 78 81 79 77 80 74 82 87 77 75 72
22 28 35 30 24 15 11 9 8 9 7 8 7 8 18 19 23 29 30 21 10 14 18 18 17 17 17 18 18 28 41 56 67 72 74 77 77 80 83 80 77 81 70 56 74 78 70 72 78
28 23 32 33 24 16 11 8 8 8 6 8 8 8 15 24 28 32 34 28 15 17 22 19 18 16 17 19 17 25 41 55 62 64 65 70 80 83 86 83 81 83 75 56 79 63 60 61 67
36 35 30 26 21 17 13 9 10 8 8 8 7 9 13 30 30 33 34 25 17 24 25 20 18 17 18 19 18 24 38 52 58 58 61 72 78 85 90 88 84 80 74 66 68 62 59 63 57
32 36 39 30 24 21 13 11 10 8 9 6 7 10 13 27 36 36 40 42 31 27 28 22 20 19 19 21 18 21 34 46 56 57 62 71 85 90 92 89 84 79 78 77 66 67 65 62 65
26 39 42 36 29 22 14 15 11 8 7 7 6 7 24 29 37 42 44 44 46 36 28 27 22 21 21 21 20 19 27 42 51 58 62 75 87 89 91 88 83 81 82 80 76 74 65 66 64
32 37 37 26 22 21 16 15 13 10 8 7 7 18 22 36 40 46 50 51 53 52 35 28 28 23 22 22 23 19 27 40 50 59 61 72 84 88 93 92 89 86 86 84 84 77 69 66 63
20 37 26 24 22 21 21 18 14 13 11 8 7 21 19 30 44 48 55 54 48 53 54 35 29 28 23 23 26 22 30 39 53 62 64 67 75 85 94 95 92 89 91 86 90 78 70 65 61
17 16 25 26 22 20 21 19 17 16 11 7 7 10 18 17 26 37 49 56 56 53 42 45 50 36 26 29 29 27 33 39 50 62 67 69 71 79 89 95 94 91 90 82 81 75 71 71 72
22 15 13 16 20 20 19 20 18 17 15 10 8 8 18 12 13 20 24 48 54 55 49 36 48 42 32 36 38 33 32 41 45 64 68 74 75 75 83 90 99 98 94 84 79 76 74 77 74
23 20 16 15 16 20 20 19 18 16 15 13 11 10 9 14 18 18 21 27 43 54 49 36 32 38 36 33 44 38 32 48 60 44 75 78 80 81 88 90 94 94 95 93 86 78 79 84 82
16 22 19 20 16 16 17 22 20 16 15 14 12 12 12 13 17 14 13 14 20 34 49 43 38 45 43 36 50 52 41 43 42 49 58 75 80 85 89 91 94 90 92 96 94 88 89 91 84
22 24 27 19 19 16 18 28 19 16 16 15 14 14 13 12 12 11 12 11 11 13 32 41 39 38 46 40 34 52 50 51 39 44 44 53 70 82 84 88 90 88 93 90 89 85 83 82 82
25 37 28 24 20 20 20 24 20 17 17 16 15 15 14 13 13 12 12 10 8 10 16 32 38 40 40 48 36 42 59 62 44 51 53 50 70 80 88 86 85 80 81 85 84 82 80 78 84
31 38 32 28 23 21 22 22 18 20 18 18 18 16 15 14 14 13 14 12 10 10 12 22 35 38 42 54 43 40 84 86 56 55 56 57 63 77 86 90 88 83 85 87 88 89 86 78 86
24 31 34 25 20 40 46 38 33 24 22 19 18 17 16 15 14 14 14 12 10 10 13 22 36 41 50 58 52 44 54 90 82 75 73 72 66 64 71 72 85 86 92 98 91 86 88 88 89
25 28 31 24 23 64 81 74 59 54 44 34 23 17 16 16 15 15 14 13 10 10 13 20 24 40 46 48 51 49 54 89 99 92 86 85 71 71 67 63 72 86 84 93 98 88 96 89 87
37 24 22 22 59 72 76 72 59 45 34 30 25 15 15 15 17 18 22 24 24 24 29 44 34 45 43 42 51 62 68 94 98 96 90 89 76 79 83 74 81 84 83 84 87 89 98 91 90
32 18 16 18 73 94 81 87 60 45 37 29 23 16 16 23 32 34 37 37 37 40 38 43 64 53 50 49 50 43 49 57 78 94 92 85 87 88 89 86 87 86 84 86 91 100 100 99 92
48 20 19 19 91 80 96 98 73 54 50 26 22 40 44 44 46 49 48 48 48 45 45 42 49 68 49 51 55 47 43 58 59 94 94 99 96 100 98 94 90 92 91 90 93 99 100 98 90
41 54 64 74 67 92 65 74 61 52 45 27 47 52 46 52 53 52 50 47 45 46 45 43 46 43 74 50 44 55 52 56 74 90 91 100 99 99 98 95 93 94 91 95 99 100 100 100 96
43 51 94 96 98 88 48 72 50 36 36 47 52 51 60 62 61 57 52 46 41 37 40 44 46 46 64 81 43 48 53 67 69 77 86 91 96 92 92 84 89 94 91 98 100 100 98 99 96
56 57 85 79 86 65 39 59 44 42 58 57 57 68 67 70 70 67 66 60 55 51 48 48 45 49 66 100 62 51 68 79 76 87 85 84 86 84 85 72 87 89 83 91 100 100 100 99 100
45 59 50 81 94 88 56 70 47 60 81 62 73 70 73 76 81 81 74 76 81 88 92 94 68 45 58 91 84 63 76 87 90 87 88 86 82 77 68 86 90 88 79 88 95 100 99 100 98
32 39 67 96 91 93 80 81 84 88 94 80 74 77 86 92 89 88 87 90 93 98 98 100 99 57 58 60 93 62 68 75 89 87 79 84 81 73 81 88 93 86 73 87 98 100 99 100 100
48 90 81 79 87 97 96 99 92 92 90 85 81 87 92 95 98 99 100 99 99 99 100 100 100 94 86 89 80 76 72 75 91 85 82 82 81 74 87 91 97 88 79 80 99 100 100 100 99
58 65 79 89 99 100 98 99 95 87 77 78 80 86 91 95 99 99 99 100 100 100 99 100 100 100 100 98 100 90 76 85 99 91 86 84 84 79 99 99 100 96 86 80 100 100 98 99 95

GFSSGP_850_rhum_108.txt.gz
RH
9 8 18 25 28 38 36 27 17 14 13 8 9 10 14 22 29 39 40 40 25 15 16 15 14 14 13 13 14 19 34 50 60 67 68 64 63 55 50 50 57 67 71 74 77 73 74 75 78
8 14 25 31 35 36 31 25 21 16 12 9 11 10 18 34 35 37 44 29 16 16 16 15 14 14 14 15 16 20 29 45 59 68 72 68 71 61 58 58 66 71 75 77 78 76 72 70 70
7 21 30 44 42 35 28 20 17 13 10 8 10 9 15 32 36 34 33 18 16 17 16 16 14 14 14 16 17 20 30 45 57 68 73 72 74 69 66 70 76 70 75 76 75 71 63 63 66
10 24 32 42 38 27 22 13 11 12 9 8 8 10 19 24 26 30 29 13 16 17 15 16 15 14 15 17 17 20 29 44 58 69 74 74 76 76 72 72 70 68 68 64 62 57 55 55 74
18 32 46 45 38 25 18 14 13 13 10 8 7 9 24 31 27 25 12 11 16 14 16 17 16 16 17 16 16 22 30 46 62 71 74 75 76 78 76 75 70 72 70 62 58 50 45 49 63
25 31 45 46 28 21 17 13 12 11 10 9 9 11 22 30 28 24 16 12 15 14 17 18 17 16 16 16 14 20 29 46 62 72 76 76 79 78 76 77 77 75 70 62 59 55 45 46 60
40 45 43 34 30 24 19 14 14 12 12 11 8 13 24 32 29 27 21 16 16 16 16 18 17 16 18 17 14 18 24 42 56 64 67 68 77 78 77 80 82 78 70 68 60 55 58 60 66
35 44 51 32 31 29 18 15 13 13 13 11 9 13 42 36 38 29 26 26 24 21 19 19 18 17 18 19 16 17 25 40 52 55 58 65 75 79 79 82 84 82 73 65 66 59 58 60 65
28 47 46 43 42 36 23 23 19 15 14 11 8 9 18 38 42 40 40 38 34 27 26 22 19 19 20 21 18 17 24 38 51 56 59 67 75 82 85 86 89 84 76 73 66 62 63 63 69
36 46 39 33 33 32 26 23 21 19 17 11 10 13 18 35 41 43 44 35 30 27 30 30 22 20 22 22 20 18 22 34 47 57 60 62 75 81 83 87 87 84 81 78 71 65 60 67 69
21 41 31 30 28 27 26 26 24 24 24 16 12 26 30 37 41 40 40 33 27 21 29 32 31 24 24 24 22 20 24 32 42 58 63 64 77 86 85 88 89 86 85 82 75 71 65 67 70
20 16 21 24 27 28 28 24 23 22 22 20 17 24 31 41 43 42 41 41 37 38 36 33 33 31 29 30 26 23 22 28 36 51 62 64 71 78 83 86 85 85 82 84 77 72 68 67 68
26 19 14 14 14 17 23 26 25 23 21 20 19 15 42 42 44 43 41 45 44 43 38 36 31 28 30 32 35 32 28 27 33 42 60 65 66 72 76 80 86 83 84 84 80 75 72 72 71
22 23 26 25 22 16 16 18 19 20 21 20 18 16 24 43 45 47 50 48 49 51 50 46 48 30 25 26 34 39 34 33 34 36 50 64 68 70 73 80 86 95 91 91 88 80 76 74 77
16 22 18 17 18 23 18 21 20 18 20 19 18 16 14 20 22 32 40 46 39 47 46 50 47 42 32 27 35 40 39 42 38 34 44 62 73 76 74 78 83 82 90 94 94 90 86 81 85
23 22 25 18 19 18 22 31 19 16 16 19 18 16 15 14 14 18 17 18 26 25 32 43 47 47 49 38 31 38 40 45 40 44 38 49 65 80 79 82 83 84 89 94 90 91 89 90 92
25 31 26 22 19 22 23 28 20 18 16 20 18 17 16 15 15 16 17 15 13 16 19 18 38 50 49 46 40 37 43 48 48 52 48 50 59 72 83 82 84 84 90 91 92 90 86 87 85
39 30 26 31 26 24 25 28 21 18 19 21 19 19 18 16 14 14 13 13 12 12 12 11 12 34 57 53 53 58 69 58 58 61 50 55 55 69 78 82 84 85 86 91 85 84 86 85 79
45 32 33 26 21 28 29 24 52 53 26 20 22 21 20 18 18 15 14 13 13 13 12 10 10 18 61 62 63 68 63 60 63 66 61 66 56 63 75 79 91 94 89 90 91 90 90 95 87
35 52 58 29 21 24 56 70 58 55 50 42 33 31 26 23 18 16 16 15 14 15 15 14 10 12 30 59 55 59 54 57 57 60 64 69 74 71 74 76 87 98 99 100 94 94 92 100 92
28 29 55 56 26 24 53 57 52 39 41 38 37 34 30 28 33 34 33 34 29 33 31 33 32 22 33 52 61 63 59 78 86 76 69 67 88 90 85 75 75 80 93 98 92 99 100 97 95
56 33 60 65 44 41 66 72 67 50 49 39 34 33 44 59 53 55 52 50 53 59 74 82 84 69 79 93 67 63 48 52 51 49 59 74 86 89 93 88 77 75 76 84 86 93 100 100 95
49 32 56 49 36 45 62 99 76 57 57 48 42 63 69 72 66 52 52 53 52 51 56 73 97 100 100 88 74 65 59 58 59 56 65 86 98 98 94 99 94 84 85 84 85 98 97 98 86
39 58 54 64 52 56 40 94 66 56 48 64 67 72 76 71 61 54 50 48 47 48 44 47 58 80 83 96 91 69 64 60 60 61 63 70 80 85 93 99 99 96 98 86 89 100 99 90 88
52 68 89 86 94 76 56 90 55 72 70 69 75 78 84 85 71 58 49 45 42 39 41 50 44 44 56 64 79 96 77 62 53 48 53 65 77 96 98 97 100 99 99 99 99 99 98 100 100
70 60 70 94 90 78 57 79 75 88 86 85 81 86 92 97 92 82 74 66 58 53 48 46 42 48 42 52 56 64 89 79 68 56 63 68 68 75 92 99 99 98 99 95 99 100 99 100 100
56 67 50 68 87 81 70 76 86 80 88 95 94 94 97 100 100 99 88 83 81 76 79 80 75 63 58 50 55 56 72 80 71 63 73 74 77 80 82 87 93 91 86 90 100 99 97 100 100
59 58 64 87 78 87 77 81 100 99 96 95 97 92 96 99 100 99 99 94 92 94 95 95 98 99 88 61 47 61 82 86 73 63 78 77 84 83 84 87 88 72 89 91 95 100 99 100 99
61 76 77 67 80 96 96 99 99 100 97 100 100 100 98 100 100 99 99 100 95 93 94 95 97 99 99 100 87 73 97 84 75 70 74 86 88 80 86 85 68 83 92 89 99 100 100 100 100
69 72 66 82 85 96 98 98 100 98 96 95 100 99 100 100 100 100 100 100 97 93 94 98 96 98 100 100 100 100 100 100 89 78 76 90 94 79 84 85 67 85 98 88 100 100 100 100 100

GFSSGP_850_rhum_111.txt.gz
RH
9 7 14 23 29 40 35 30 18 14 12 9 10 13 14 23 31 36 38 28 38 17 15 16 18 22 25 25 26 36 44 52 57 60 60 60 53 48 49 58 69 73 73 72 72 72 75 77 74
10 8 18 30 34 39 30 29 22 17 12 10 10 10 14 27 38 40 41 39 27 14 16 16 15 16 19 17 18 24 34 48 58 64 63 64 57 52 53 63 68 70 70 74 75 72 71 69 64
9 17 27 45 49 32 20 19 18 14 12 12 10 10 16 30 31 29 37 31 15 15 16 15 14 15 18 18 18 20 29 43 59 68 67 66 65 58 59 63 63 62 66 69 70 70 65 62 58
9 19 32 47 50 36 22 15 15 14 10 9 10 10 12 24 26 29 33 18 15 16 15 14 14 15 17 18 17 19 24 41 60 70 70 67 71 65 64 60 60 60 63 63 62 61 56 54 54
17 33 44 56 50 34 23 18 16 14 12 11 10 10 13 25 32 30 27 13 13 14 14 15 14 15 17 17 15 18 23 40 59 70 72 71 74 72 68 66 61 62 64 62 56 53 54 63 62
19 34 54 49 27 26 21 17 17 14 12 11 10 11 18 29 28 29 20 13 15 14 16 16 15 16 18 17 15 20 25 42 58 70 71 73 75 75 73 71 65 64 65 61 56 50 52 61 58
33 47 46 39 35 27 24 17 19 18 16 14 12 13 14 33 29 28 14 14 17 15 17 17 16 17 18 17 15 20 29 42 58 66 70 73 72 72 76 75 72 68 66 62 61 57 56 64 65
35 51 56 38 29 29 22 19 17 16 17 15 14 16 35 20 32 22 16 18 18 16 18 17 17 16 18 17 16 19 30 40 55 63 67 71 69 70 74 78 77 72 64 73 64 59 61 60 60
32 53 46 39 38 35 26 30 22 20 22 19 17 17 19 30 34 26 21 21 20 18 19 18 17 16 18 19 18 22 30 38 52 57 62 67 67 72 77 77 79 78 79 70 71 67 59 61 66
34 56 36 34 34 36 29 27 27 24 24 24 23 17 24 37 38 34 27 26 22 22 25 20 19 16 18 20 20 20 27 33 45 52 56 61 64 69 76 81 83 83 77 73 73 65 65 65 68
31 37 28 28 29 30 34 32 28 28 29 24 22 18 36 67 45 41 31 23 17 19 25 25 21 19 19 20 21 20 25 31 42 52 54 60 66 78 83 87 91 86 77 76 73 64 62 62 67
27 16 18 24 27 29 34 29 28 26 26 24 22 20 20 52 81 44 37 31 27 24 21 23 24 20 20 21 23 21 23 28 36 47 54 59 64 76 83 86 87 86 81 78 74 66 62 63 68
46 33 26 23 22 18 17 17 22 25 24 24 24 22 21 19 44 67 36 34 32 32 25 25 24 24 22 22 24 24 24 26 32 43 49 58 61 66 77 79 82 82 84 81 79 70 65 65 68
21 17 17 16 15 17 24 25 16 15 16 18 20 21 21 19 18 58 60 43 38 34 31 38 38 36 31 26 24 27 27 30 33 41 45 51 60 62 66 70 77 82 82 83 83 79 71 70 74
19 28 23 21 18 19 18 21 23 20 17 15 17 20 20 19 17 48 60 41 39 38 38 37 41 45 42 31 26 29 32 34 33 36 44 48 56 62 65 65 72 80 83 86 88 87 82 78 78
30 29 32 21 19 17 21 30 18 18 20 18 17 16 18 18 18 32 54 45 44 45 44 42 50 48 51 40 34 30 36 39 36 36 44 49 53 63 67 69 70 76 82 87 88 92 91 86 85
38 42 33 27 18 18 19 22 18 19 20 20 19 18 18 17 18 15 46 51 50 46 40 49 51 44 48 49 42 38 39 51 42 44 43 43 52 64 70 74 75 79 85 88 90 91 94 93 90
57 56 52 54 32 20 21 24 24 21 21 27 21 19 17 18 18 17 15 17 40 45 41 45 32 29 40 55 56 56 59 66 59 50 48 42 42 55 69 81 83 86 91 95 96 93 89 89 91
33 34 37 45 54 42 29 26 23 23 26 35 45 22 22 19 18 18 17 16 24 28 30 25 29 26 40 52 61 58 59 59 63 60 55 53 49 46 58 74 87 92 92 92 96 93 90 85 83
51 54 46 36 31 55 54 36 25 24 43 33 35 38 25 24 30 27 22 20 17 18 17 23 22 14 16 31 35 49 53 63 69 76 75 72 57 53 50 56 78 92 94 95 96 96 95 91 91
54 68 61 57 30 42 58 67 31 25 34 39 40 35 42 44 48 50 41 34 36 34 24 17 16 20 30 44 81 72 67 70 73 78 72 73 70 66 60 56 66 89 98 100 98 98 97 93 91
73 49 56 48 58 71 45 67 32 35 38 46 40 65 77 73 68 64 65 63 56 64 80 68 81 65 61 84 89 76 69 63 56 63 66 74 79 73 75 72 72 86 99 98 98 96 96 98 93
56 50 55 48 46 84 74 77 48 66 66 74 77 80 84 82 77 70 69 68 61 70 94 99 98 98 98 100 100 97 88 69 60 66 68 65 77 79 85 90 93 87 85 86 94 99 99 100 99
43 53 57 58 67 94 61 56 53 58 76 87 85 90 93 91 88 84 82 73 58 57 59 78 98 100 100 98 99 99 81 62 63 60 59 62 67 77 86 98 98 98 95 90 87 97 98 96 99
50 65 79 94 97 81 45 61 44 90 88 88 92 93 99 100 99 89 92 86 66 58 53 51 55 68 77 94 99 100 97 69 70 58 57 62 64 72 69 86 98 98 98 99 98 99 98 99 99
61 64 80 94 94 75 59 86 92 93 90 94 92 98 99 100 99 100 99 100 91 79 64 53 50 44 43 51 64 93 93 94 88 72 70 69 68 62 61 64 82 95 98 98 100 99 99 100 99
56 76 52 87 79 97 82 100 96 95 96 97 97 98 100 100 100 100 100 100 99 95 90 82 68 52 40 36 34 47 56 62 62 66 67 69 72 72 72 74 80 94 98 99 99 98 99 97 100
62 62 83 95 96 88 79 97 98 97 100 100 100 98 100 100 100 100 100 100 100 100 96 95 99 100 98 88 55 34 38 57 56 59 59 60 68 72 80 82 85 99 99 99 100 99 99 99 98
77 75 78 76 84 97 95 98 100 100 100 100 100 99 100 100 100 100 99 100 94 92 92 95 97 99 99 99 98 86 63 70 98 98 73 64 66 67 79 85 87 87 98 100 98 99 96 92 96
82 72 72 86 86 94 96 98 100 100 100 99 98 100 99 100 100 100 98 100 99 94 95 94 97 100 100 100 100 100 96 98 100 100 92 73 69 70 75 87 88 90 89 80 98 99 97 99 98

GFSSGP_850_rhum_114.txt.gz
RH
17 8 10 19 26 38 30 20 20 14 15 10 13 12 13 18 40 46 28 36 19 17 22 28 36 37 41 47 51 54 51 50 51 49 51 50 52 59 64 70 75 72 70 66 66 67 76 82 72
13 8 18 27 29 32 22 26 22 18 11 9 10 11 17 23 31 36 37 27 26 18 15 18 24 28 35 40 50 54 50 50 52 55 56 54 51 52 55 56 60 63 69 70 69 69 75 74 70
11 12 21 43 46 26 17 14 21 15 12 11 11 10 11 26 29 35 28 29 27 14 14 18 19 20 23 28 40 46 44 47 53 57 59 60 55 52 51 50 55 59 65 68 68 67 68 64 57
10 20 27 44 49 36 16 15 16 16 9 11 11 12 8 15 22 30 33 26 17 13 15 16 15 15 16 20 27 35 36 43 55 60 61 65 59 56 54 52 54 57 61 65 64 63 63 57 55
16 25 30 54 50 37 29 21 17 17 15 14 12 13 10 13 15 32 32 23 12 15 16 15 14 15 17 19 23 29 31 42 57 61 65 67 66 61 60 56 56 60 63 64 63 64 59 56 54
18 35 51 40 30 30 23 18 19 19 15 13 13 12 12 11 16 35 34 20 13 15 14 15 15 16 16 18 19 26 29 39 56 63 68 70 70 66 64 62 59 62 65 63 64 59 53 52 57
26 46 43 38 35 29 24 17 21 20 19 17 13 15 14 13 22 36 36 17 16 16 14 15 16 17 19 17 16 22 28 38 54 66 71 72 72 71 69 68 64 65 69 65 60 52 52 56 59
34 51 53 37 33 32 22 18 18 18 19 16 16 18 16 19 18 43 33 18 18 16 16 16 16 17 19 19 16 21 28 37 51 67 74 71 71 71 74 73 71 70 71 65 61 58 55 55 59
33 54 57 44 36 33 26 27 22 21 22 22 22 19 20 20 17 32 29 21 21 18 17 17 17 18 18 20 16 20 30 39 52 68 75 72 68 67 73 76 76 77 71 70 65 64 60 64 68
35 59 34 35 33 35 31 30 27 28 27 28 26 22 26 20 38 49 33 21 20 18 18 18 18 17 18 20 20 20 26 36 47 61 71 69 65 61 67 76 80 78 72 80 74 67 68 69 68
29 35 29 27 28 33 39 34 31 31 34 27 26 24 23 23 29 70 44 30 15 18 19 19 18 18 19 19 21 21 22 27 41 54 61 62 62 62 66 77 83 89 89 87 74 75 69 68 68
45 25 20 20 22 22 25 23 26 25 28 27 27 26 24 24 25 48 60 41 34 20 18 19 20 19 19 21 21 20 20 24 32 46 54 56 59 63 66 77 82 87 89 81 75 77 68 67 66
29 33 29 26 19 18 17 18 24 24 23 19 16 15 17 20 22 22 40 57 54 37 20 24 22 21 21 21 22 21 20 22 26 36 46 51 57 60 63 74 81 86 86 80 79 78 69 66 64
23 22 22 22 24 20 19 19 18 18 20 19 19 19 16 17 17 20 21 37 63 49 38 33 29 25 23 21 22 22 21 21 28 31 35 46 53 57 61 69 75 83 83 82 80 78 71 67 65
26 33 28 25 22 20 18 21 18 14 16 20 18 18 20 17 15 20 20 20 30 53 48 44 34 30 28 26 23 24 24 23 26 28 33 40 49 58 64 64 66 71 80 86 84 83 80 74 71
32 37 45 27 22 22 21 29 18 16 15 17 17 20 20 18 18 15 18 19 23 44 52 48 40 39 41 41 34 27 28 26 28 30 35 37 44 55 66 66 64 66 74 87 88 88 88 84 77
42 50 48 41 27 27 26 30 21 20 17 17 17 18 20 22 19 17 15 17 23 33 49 50 45 46 40 50 48 35 32 31 34 37 36 35 38 51 61 65 65 66 74 86 87 91 93 92 89
43 53 50 54 36 36 45 46 34 28 22 21 22 24 22 24 23 19 16 17 18 36 51 50 46 47 46 58 61 52 42 39 38 40 41 39 41 49 56 64 67 72 77 85 86 91 94 93 96
39 43 49 38 30 32 33 41 38 35 32 26 23 22 25 27 21 24 20 19 21 56 67 56 50 52 54 65 70 67 50 39 43 42 45 47 45 49 56 62 68 75 79 81 87 92 96 97 98
61 68 64 46 33 46 46 46 34 36 37 35 35 23 33 29 33 33 31 23 20 26 56 70 62 63 59 63 64 68 63 57 50 50 50 59 55 49 51 52 60 72 83 88 92 98 99 100 100
50 58 47 50 49 52 52 50 41 33 28 30 31 31 47 49 61 55 51 45 29 25 26 38 61 68 63 58 67 74 79 79 75 68 58 57 63 65 63 59 57 69 84 88 90 94 98 100 99
68 44 47 56 68 91 50 85 55 36 35 37 82 90 94 91 86 85 76 74 62 46 32 25 24 29 47 65 80 82 79 67 57 61 61 65 67 69 74 72 69 62 91 99 99 92 92 91 89
56 48 57 57 72 75 68 88 70 41 43 94 93 96 100 100 98 96 92 88 89 91 83 78 56 35 50 98 96 100 99 72 71 69 70 67 69 67 74 74 76 72 88 100 99 93 92 90 84
49 61 64 65 80 96 59 72 61 96 99 94 91 98 100 100 100 100 100 93 85 90 99 100 100 89 87 98 99 99 98 98 75 87 74 63 60 55 64 78 79 82 85 94 97 96 99 94 89
59 65 89 87 94 86 54 69 89 98 93 96 98 98 100 100 100 100 100 99 91 84 80 92 96 98 100 99 99 100 98 99 94 82 67 46 52 56 56 64 71 86 92 96 97 93 99 98 92
60 61 85 94 94 89 66 82 99 100 97 100 100 100 100 100 100 100 100 99 100 100 87 83 74 77 83 93 99 100 100 100 100 89 79 68 62 57 60 61 66 82 85 90 94 95 92 94 94
56 77 69 97 86 96 98 98 95 88 95 98 98 99 100 100 100 100 100 100 100 100 100 98 93 80 69 64 64 83 98 99 100 100 98 66 62 64 72 72 72 77 90 91 93 94 96 92 95
58 61 93 97 96 92 88 96 97 95 98 98 97 98 98 98 100 100 100 100 100 100 100 100 100 99 95 92 83 65 57 63 80 90 84 74 70 60 63 66 80 81 84 87 94 93 95 98 98
86 86 88 89 90 96 96 97 100 99 99 98 98 99 98 98 99 100 100 100 100 98 100 100 100 99 100 98 96 100 94 65 52 65 98 96 95 87 81 81 87 83 87 91 98 99 99 99 98
81 85 81 97 89 97 97 98 100 100 100 97 98 98 98 98 98 100 98 100 98 98 100 99 99 99 99 100 100 99 100 99 99 85 97 99 100 97 88 74 76 79 83 96 98 98 98 100 100

GFSSGP_850_rhum_117.txt.gz
RH
21 13 12 21 13 19 14 9 17 11 15 13 12 12 10 12 35 24 26 28 30 19 22 28 38 43 48 54 54 50 50 50 48 48 49 53 64 69 71 72 71 69 68 66 64 67 72 72 66
17 10 18 22 11 12 7 14 17 12 11 11 9 11 14 21 19 18 24 28 20 16 18 26 32 37 44 51 53 52 51 52 50 48 50 54 63 64 68 68 72 71 67 66 64 66 72 74 66
14 12 19 23 20 9 7 8 12 14 12 12 11 10 10 18 23 30 30 32 17 19 20 24 25 33 39 45 48 49 54 54 53 51 53 54 56 57 60 65 63 59 60 65 64 66 71 73 67
14 21 23 21 21 20 11 13 16 14 12 12 12 10 7 9 13 16 39 23 21 20 19 17 19 24 30 35 43 43 54 57 58 57 57 55 54 52 51 54 56 56 60 65 67 65 71 69 60
16 20 17 30 29 26 22 19 18 14 15 14 13 11 12 11 14 20 39 32 26 19 15 16 18 20 20 24 29 31 48 54 58 60 60 60 56 54 53 56 55 60 64 67 68 68 67 61 54
19 33 24 23 22 25 19 16 18 16 15 15 14 14 13 13 16 18 42 41 34 19 17 18 19 18 19 20 23 30 42 47 52 61 62 63 61 59 59 58 60 64 64 66 70 69 61 55 53
19 25 23 28 27 24 19 18 20 19 18 17 16 15 15 14 17 16 22 44 41 19 19 18 18 18 20 21 21 26 40 48 50 58 64 64 65 64 64 63 64 66 68 69 70 63 55 53 54
33 32 37 30 26 25 21 19 19 20 19 18 17 18 18 22 22 19 18 40 43 19 21 18 17 19 22 23 25 25 38 52 53 56 63 66 68 69 68 68 67 67 72 68 64 58 55 57 56
34 32 34 30 30 25 24 24 23 25 25 26 25 25 24 25 22 23 39 36 36 21 20 20 18 17 19 22 24 28 32 50 62 63 65 68 72 74 74 73 72 72 74 66 61 60 61 58 62
29 38 29 26 26 29 31 32 30 30 29 28 29 26 28 26 44 35 30 56 35 22 22 20 18 18 19 21 24 31 38 42 64 71 69 70 69 71 74 79 78 77 76 68 67 64 64 65 68
25 20 26 23 26 23 22 20 22 22 23 24 29 23 23 22 25 38 37 44 47 38 28 26 23 19 20 22 23 30 40 39 45 67 66 67 72 71 76 81 85 83 79 72 81 72 65 67 68
32 29 26 26 26 21 18 18 17 17 19 18 18 19 20 18 16 17 35 30 47 42 36 26 27 23 20 22 21 23 33 38 34 49 66 68 69 69 70 78 83 84 79 76 84 74 72 69 68
23 20 24 25 22 20 20 18 17 16 15 18 16 16 17 18 19 18 19 31 42 50 38 31 28 26 23 21 22 21 24 35 37 34 53 65 65 62 64 72 83 86 87 88 87 74 74 68 66
26 24 24 25 24 25 22 17 18 15 15 16 16 14 14 19 21 19 20 25 45 24 47 33 32 26 25 22 24 22 21 24 32 34 32 50 60 58 59 68 80 87 87 88 83 78 78 70 67
26 28 23 21 21 22 20 19 17 16 17 16 16 15 13 13 17 20 17 18 25 41 28 42 33 30 26 24 24 25 23 21 28 32 28 37 48 57 58 64 76 84 88 90 85 86 83 74 70
28 28 31 23 20 22 25 33 21 22 22 24 23 21 20 19 14 15 19 19 18 36 55 33 37 33 28 28 26 27 27 25 27 32 30 30 39 52 59 62 70 78 83 91 88 85 85 78 76
37 35 32 27 23 24 29 34 24 26 28 28 25 22 20 20 21 19 19 18 20 28 26 20 51 37 37 34 32 30 30 30 28 31 35 29 31 45 57 61 67 71 78 88 91 88 87 86 84
34 35 32 34 23 26 32 33 26 23 26 26 28 25 23 20 16 19 20 14 17 23 22 23 27 53 47 47 42 38 36 37 34 32 33 34 28 32 54 64 66 69 73 80 90 92 91 90 91
37 42 41 34 29 38 36 30 29 32 33 30 27 28 28 23 22 21 21 20 19 24 23 54 52 59 57 55 52 53 51 46 42 40 39 38 36 32 38 57 66 69 73 74 81 91 93 93 94
43 48 48 40 33 33 34 39 35 36 36 34 30 26 26 27 27 26 35 33 29 26 27 90 91 72 61 55 60 64 58 56 47 48 46 46 43 39 37 40 60 69 76 79 83 86 91 92 94
47 51 47 46 36 38 45 46 34 28 27 30 30 44 43 62 54 77 80 62 53 40 47 98 99 92 67 65 70 71 62 75 65 54 51 49 47 45 45 42 49 63 73 77 81 85 92 92 91
63 41 42 46 54 60 45 74 42 40 49 74 81 91 97 100 100 100 96 100 85 68 53 72 100 99 90 66 60 56 51 55 56 60 56 56 58 52 54 47 47 51 64 70 78 88 96 97 94
39 42 47 51 59 64 48 80 45 64 93 99 98 98 100 100 100 100 100 100 100 100 99 73 75 100 89 80 81 70 69 63 64 71 70 68 65 62 64 55 56 59 60 62 71 96 98 100 97
43 55 52 55 67 81 54 67 56 95 100 98 100 100 100 100 100 100 100 100 100 100 99 100 100 100 100 99 100 100 91 91 92 80 74 72 67 66 65 56 57 62 66 69 65 88 99 97 88
57 55 69 66 73 65 78 90 95 100 98 100 99 99 100 100 100 100 99 100 100 100 100 100 100 99 100 99 100 99 99 99 98 99 91 92 77 68 64 55 55 57 62 70 77 82 98 98 96
51 52 73 89 67 73 84 90 92 100 91 98 99 100 98 99 100 100 100 100 100 100 100 100 98 99 99 98 98 100 99 100 99 98 99 100 92 65 68 83 61 59 63 70 80 86 88 91 90
58 66 51 93 78 90 92 94 100 75 86 88 98 98 99 98 100 100 100 100 100 100 100 100 98 92 90 90 94 96 95 100 100 100 100 99 94 82 63 68 64 63 67 70 82 86 85 88 89
55 54 96 90 90 78 90 86 92 91 96 94 94 97 99 98 98 98 100 100 100 100 100 100 100 99 97 95 90 86 89 94 97 100 100 100 100 91 94 64 64 68 71 75 87 92 88 88 91
58 73 97 98 82 90 87 92 100 99 99 96 96 98 98 98 97 98 98 100 100 100 100 100 100 100 99 98 99 99 99 93 80 78 93 99 100 92 73 73 80 68 72 70 87 96 96 91 91
63 70 86 92 83 90 91 94 100 100 99 96 97 98 98 98 97 97 98 98 100 100 100 100 100 99 100 100 100 99 97 98 99 99 83 73 99 100 100 100 100 92 78 81 78 90 98 95 93

GFSSGP_850_rhum_123.txt.gz
RH
21 24 20 17 13 8 7 5 3 4 4 6 7 6 6 6 8 13 16 42 47 46 51 35 35 38 39 44 46 46 44 45 54 60 65 68 66 62 58 55 56 61 64 65 68 68 68 70 68
26 21 20 17 14 10 7 4 4 5 4 6 5 5 5 8 13 14 20 34 48 52 78 36 33 37 38 45 47 47 47 46 48 54 60 68 70 64 63 59 63 65 65 66 67 67 66 70 67
25 22 19 14 14 13 9 6 5 5 6 6 5 6 5 8 11 18 29 45 58 54 74 69 36 38 41 46 48 49 49 49 49 49 54 65 71 67 67 64 68 69 69 68 67 67 70 70 68
23 19 17 17 15 11 10 7 6 7 7 6 7 8 8 8 17 24 32 50 60 57 71 76 48 41 47 49 49 51 48 49 51 51 51 63 71 70 70 70 72 72 72 70 68 69 71 73 70
20 17 16 16 14 11 9 9 10 10 9 10 10 11 11 12 22 31 39 47 63 60 70 76 56 48 52 50 50 49 47 52 53 52 54 59 71 72 72 72 72 72 69 70 68 71 77 77 72
14 12 14 13 10 8 9 11 10 10 11 12 12 12 13 13 27 34 42 54 66 64 76 89 65 59 59 55 51 45 44 52 57 55 55 59 65 70 71 70 72 66 65 70 70 70 73 75 68
14 10 11 9 8 8 8 8 9 10 10 10 13 14 14 14 30 25 32 55 74 82 83 90 68 65 64 61 54 47 44 51 58 58 58 63 67 68 70 68 68 66 64 70 72 69 71 69 62
13 9 12 8 8 8 7 8 10 10 11 15 15 14 16 20 25 23 23 30 65 87 96 94 97 68 67 66 59 56 52 54 60 60 62 67 68 67 67 67 68 67 68 70 70 71 71 62 58
12 9 7 6 6 7 8 9 13 14 12 10 10 15 16 17 22 18 19 22 27 63 91 97 96 97 95 93 66 57 59 61 65 65 65 68 72 68 66 69 73 68 70 71 72 72 64 60 60
7 7 6 4 6 10 11 12 9 8 6 6 7 8 9 11 12 11 13 16 20 25 64 95 98 94 94 89 92 65 58 64 68 69 68 71 92 97 95 92 74 74 72 74 72 68 62 63 76
6 6 5 5 6 7 7 7 7 6 6 6 6 7 8 8 9 10 10 10 15 17 23 76 92 98 79 88 89 92 91 92 94 94 94 88 91 95 100 92 82 77 78 76 72 64 62 67 90
13 9 7 7 8 9 9 9 8 8 8 8 8 8 9 9 8 9 8 8 11 14 17 40 85 96 89 78 92 77 79 85 85 92 98 94 91 92 92 100 99 94 89 98 83 88 93 88 89
9 8 9 10 10 10 10 11 11 10 10 10 9 9 10 10 9 8 9 9 9 11 16 21 55 92 96 80 84 79 84 66 78 92 97 90 96 93 99 98 98 97 96 98 92 93 91 91 88
11 12 11 11 10 10 10 9 10 10 10 9 9 10 11 11 10 11 12 12 12 11 13 17 25 72 96 98 86 84 82 87 67 86 99 92 90 94 91 96 97 99 97 94 92 92 91 96 90
14 14 11 9 9 10 11 12 9 8 9 9 10 12 12 12 12 13 14 15 14 14 13 14 20 43 85 99 94 84 86 93 37 36 94 88 85 97 89 90 96 84 99 92 93 91 95 93 87
14 13 14 8 8 9 11 15 9 8 10 10 10 10 11 11 12 12 13 13 15 13 13 13 14 21 72 88 95 84 84 95 39 29 43 98 95 91 84 86 96 88 94 97 97 96 98 90 88
12 12 10 10 8 10 12 13 9 11 12 12 13 13 14 15 15 15 16 15 14 14 13 15 14 19 37 87 93 91 85 94 75 52 36 75 99 92 79 90 90 93 93 97 98 100 99 89 89
14 14 14 14 11 12 13 14 11 12 14 16 21 28 32 32 32 32 24 18 16 15 16 16 16 17 23 73 84 94 89 90 90 79 82 40 63 92 84 80 69 66 83 71 92 99 96 97 85
19 21 20 15 13 17 16 14 13 14 24 32 34 37 41 48 52 53 49 38 23 18 20 20 20 21 29 55 88 89 90 87 71 70 72 70 35 59 76 78 74 65 88 66 72 83 98 99 93
24 26 23 16 13 15 17 19 15 15 28 31 35 40 48 65 72 71 72 71 52 62 53 45 44 52 49 38 80 83 88 81 62 64 69 86 42 31 70 58 57 60 90 68 74 79 83 99 99
23 26 25 21 16 16 19 19 16 19 24 34 38 46 53 65 79 95 96 96 90 89 91 76 72 57 60 52 68 81 86 74 68 66 69 82 85 44 50 53 51 55 63 61 82 70 77 96 97
32 20 20 22 26 32 20 39 20 29 34 40 44 54 63 70 79 98 98 98 99 100 98 66 92 77 67 78 79 71 83 71 66 64 69 79 92 62 40 48 52 58 59 58 65 64 68 80 96
29 26 30 31 35 35 28 32 24 36 56 55 54 64 68 77 84 94 100 97 98 99 99 98 100 100 69 33 75 78 83 69 69 69 70 77 92 95 44 45 51 52 53 54 65 67 72 66 90
29 34 30 30 30 43 27 31 36 71 76 69 68 73 77 88 94 92 99 94 99 98 100 100 99 99 95 72 80 75 76 77 70 74 79 86 98 92 99 52 46 46 47 50 60 72 69 64 68
32 33 44 37 52 43 26 31 72 51 53 63 74 85 79 87 98 99 100 94 94 98 100 99 100 100 100 97 99 99 95 86 81 89 89 99 96 86 99 99 87 62 49 52 64 66 69 70 73
33 33 43 57 48 42 30 48 85 44 50 62 67 78 84 90 99 99 98 98 96 98 99 100 100 100 98 100 100 100 100 100 100 80 84 98 98 97 97 98 98 100 86 73 94 83 88 96 95
35 36 37 61 44 65 52 74 62 48 58 70 79 82 90 97 99 97 96 97 97 97 97 100 98 100 100 100 98 100 100 100 95 72 63 97 100 100 98 98 100 99 97 91 93 99 95 93 95
35 28 54 64 88 69 46 89 84 88 89 91 92 91 96 98 98 97 95 96 96 96 100 100 100 100 100 100 100 99 99 99 91 79 76 98 100 100 99 98 98 99 99 100 100 100 95 72 93
35 47 54 54 51 76 70 92 84 95 95 93 92 97 98 97 96 97 96 96 98 99 98 100 100 100 100 99 99 100 100 98 98 90 88 99 98 99 99 100 99 99 98 98 99 100 98 99 81
29 40 44 85 62 90 99 96 79 74 75 84 93 98 94 98 96 97 96 97 97 97 100 100 95 98 100 98 98 96 100 88 98 99 100 97 96 99 100 100 100 100 99 99 99 100 98 85 84

GFSSGP_850_rhum_129.txt.gz
RH
19 22 20 24 27 28 24 16 9 8 8 5 5 5 6 11 17 50 38 50 50 48 55 54 45 42 37 45 42 39 36 36 41 46 57 62 62 59 54 52 51 50 58 60 64 66 65 66 65
21 21 20 19 32 35 28 13 9 7 6 5 6 6 6 15 26 40 31 28 57 55 60 63 59 50 45 50 45 42 38 39 41 46 56 62 63 62 59 55 55 57 62 62 62 66 68 70 71
22 23 22 31 33 35 27 13 7 6 6 6 6 7 8 11 28 41 45 30 57 58 70 67 64 56 48 52 49 45 42 41 40 46 52 60 63 65 63 59 58 62 62 65 66 66 65 67 70
22 22 20 29 28 23 19 14 9 10 7 8 9 11 26 25 28 41 28 23 56 78 73 70 66 63 57 55 52 50 46 44 41 45 48 52 59 65 66 64 61 66 65 66 66 63 65 70 71
20 20 30 30 27 20 15 9 10 11 10 13 13 16 28 26 28 29 28 28 49 67 84 74 73 65 59 56 55 53 50 47 43 45 46 49 55 65 69 68 66 67 66 67 66 62 65 72 71
17 17 27 27 18 12 10 11 11 12 14 14 14 16 27 21 19 23 23 24 26 40 75 84 84 84 76 59 57 56 55 51 47 47 46 46 49 62 70 71 70 68 64 68 65 65 64 75 73
18 25 25 21 17 13 10 10 14 15 13 10 9 14 20 15 13 14 15 18 19 36 29 75 86 88 81 71 62 60 59 55 51 50 48 47 48 59 72 73 73 69 66 66 66 66 67 74 72
9 15 13 12 12 12 10 10 10 8 11 6 7 11 9 11 8 8 9 10 14 16 19 24 64 68 89 78 65 63 63 59 57 54 52 50 52 59 72 76 75 71 67 64 64 68 68 71 69
7 16 19 13 8 7 6 8 6 6 7 7 6 6 8 6 8 8 9 8 8 10 11 19 29 54 65 82 69 66 65 64 62 61 57 55 57 62 73 74 76 70 68 65 66 68 68 68 64
9 15 13 10 7 7 7 7 7 8 8 8 7 7 6 7 8 9 9 9 9 9 9 9 32 42 66 66 80 70 69 68 64 64 59 56 60 63 69 68 74 74 70 68 70 70 68 68 58
7 11 9 8 8 8 8 8 8 8 10 9 10 9 9 9 9 9 9 10 10 9 9 9 10 32 59 69 75 85 73 74 67 67 67 58 59 65 70 70 75 74 74 70 68 69 67 65 56
9 8 8 8 7 8 9 8 9 9 9 9 9 9 9 9 9 10 12 12 11 11 11 11 10 10 41 68 76 79 95 84 82 68 68 68 63 64 69 67 68 70 69 68 67 66 68 63 61
10 9 8 8 10 9 8 10 11 10 9 9 9 9 8 9 10 13 22 21 21 19 16 14 12 12 13 29 66 74 77 83 91 80 69 68 65 65 67 75 74 79 76 72 68 69 69 61 79
12 12 12 11 11 10 11 11 10 9 8 9 9 10 11 20 32 26 25 31 26 27 24 22 20 16 13 14 23 64 70 80 92 84 74 66 63 63 73 87 83 81 85 80 72 70 71 64 82
14 17 15 12 11 13 10 11 12 9 8 10 10 24 28 32 32 37 40 38 38 34 36 31 24 24 24 16 14 36 54 78 87 82 84 77 69 74 77 90 89 81 78 86 84 85 83 83 88
18 19 22 16 13 11 10 17 11 8 9 10 29 32 33 36 37 36 33 28 26 25 27 31 31 24 26 22 23 13 18 68 75 82 86 86 80 73 83 86 90 87 83 90 85 92 90 85 82
24 29 23 18 10 11 12 15 11 10 9 29 33 36 39 40 36 34 31 28 27 27 25 24 29 31 26 26 27 32 14 44 70 82 89 88 90 87 76 75 82 87 88 94 86 90 86 81 82
24 21 18 17 14 16 18 18 14 11 23 36 42 46 50 50 52 50 49 49 38 32 32 39 36 38 38 32 25 26 28 20 65 82 87 86 86 88 77 79 82 89 86 87 85 86 84 83 84
19 20 20 18 16 19 21 18 17 19 38 46 53 56 59 59 57 59 64 62 62 48 42 45 56 43 52 47 41 26 24 48 73 60 78 95 82 84 75 86 88 82 84 83 78 78 81 88 90
19 24 27 23 18 18 21 22 31 38 45 53 59 64 67 68 71 73 78 79 69 60 59 57 70 63 51 60 63 69 56 37 76 91 73 79 90 81 76 82 88 81 83 89 81 79 83 89 89
21 22 26 26 22 23 26 29 46 45 47 52 60 68 71 74 79 84 85 75 71 67 65 72 79 77 60 54 57 64 66 62 47 72 90 85 96 85 72 83 86 88 94 89 82 88 82 89 94
30 20 24 30 37 49 28 54 50 52 53 54 65 75 74 76 84 88 80 73 76 78 80 87 79 76 70 60 65 61 64 58 44 45 67 99 92 89 75 82 81 92 98 96 83 86 90 91 89
22 27 30 34 42 45 41 57 61 56 73 68 72 81 80 83 88 90 87 85 81 86 92 90 83 82 78 70 70 85 74 70 49 35 47 76 100 98 78 74 81 64 100 100 100 100 99 97 90
25 31 35 36 42 72 42 42 83 82 80 77 75 86 82 87 90 91 86 83 88 88 91 94 97 96 91 88 78 97 93 72 49 39 33 44 69 100 95 80 89 86 90 76 73 98 99 100 98
30 39 77 73 74 66 37 55 83 74 74 76 79 86 84 89 93 93 90 92 94 94 95 92 95 95 98 99 98 99 99 98 76 33 28 48 54 79 100 95 92 84 83 96 100 99 99 97 98
35 37 67 74 87 79 42 68 93 69 72 74 78 82 90 92 93 96 90 93 94 96 98 98 96 96 100 99 99 100 98 89 69 52 72 95 81 74 98 99 86 85 78 90 100 99 100 97 96
32 40 32 56 59 86 83 77 76 65 73 74 85 86 91 97 99 97 86 92 95 96 98 98 97 96 99 100 100 99 100 95 93 93 100 69 68 85 93 100 88 94 92 100 100 97 99 98 96
31 29 63 79 89 89 69 98 98 96 92 86 92 93 90 100 97 90 91 95 96 98 98 95 96 97 99 99 100 100 100 100 100 100 89 72 90 88 71 98 100 99 99 100 99 100 99 99 99
35 41 60 72 74 93 96 91 87 97 96 94 92 90 93 99 95 93 90 94 98 98 98 93 97 95 98 98 100 100 99 100 100 100 93 91 100 97 82 100 100 100 100 99 100 100 100 99 98
33 42 54 89 71 87 93 96 85 82 80 82 87 88 91 96 92 96 93 94 95 98 95 95 96 95 97 98 97 100 100 100 100 100 100 100 100 100 91 100 100 93 100 100 100 100 100 100 100

GFSSGP_850_rhum_132.txt.gz
RH
18 22 20 20 26 31 27 17 10 8 7 6 6 12 19 26 39 59 45 56 45 55 54 56 48 45 46 46 39 37 35 34 37 45 56 60 61 58 52 51 50 47 46 50 58 56 59 65 68
23 23 21 20 36 38 30 18 8 8 6 6 7 10 23 38 46 53 58 56 52 58 66 65 62 57 51 53 45 40 37 36 38 42 55 61 62 61 58 55 54 53 60 61 65 67 68 66 70
22 22 22 35 42 37 30 19 19 9 12 9 7 25 27 32 51 44 47 64 54 76 78 76 73 66 59 56 50 44 41 39 38 43 53 62 63 63 61 58 57 58 59 62 62 66 68 70 71
20 22 22 32 34 26 21 18 13 10 13 14 23 33 24 23 22 23 28 39 60 73 82 79 79 70 67 62 53 46 44 44 41 44 52 60 62 64 63 61 59 62 62 62 65 63 62 67 68
18 22 34 34 30 22 12 14 15 17 16 14 24 31 26 18 20 22 23 24 29 35 62 81 83 89 78 69 60 52 47 47 45 45 53 57 60 62 65 65 62 64 65 64 66 64 64 68 68
17 20 30 29 22 16 11 12 11 14 9 10 16 28 21 9 12 11 13 19 25 23 20 36 64 76 86 86 65 57 52 50 48 47 52 56 59 62 67 67 66 67 65 66 65 65 65 70 70
19 28 27 22 20 12 10 11 11 10 8 8 8 22 13 9 8 8 8 9 14 25 15 19 28 36 62 79 79 65 58 56 54 51 52 55 57 61 69 70 70 70 64 67 66 65 66 73 73
9 17 15 14 14 11 8 8 6 6 9 6 7 10 15 10 9 9 8 7 8 9 9 9 46 45 47 66 75 73 64 60 59 57 55 56 59 62 69 74 74 72 66 65 66 68 68 73 72
8 17 20 15 8 7 7 8 7 7 7 7 8 8 9 9 9 9 9 8 8 8 9 10 16 62 83 69 71 77 69 65 64 62 59 59 60 63 70 75 76 75 68 65 64 69 70 71 72
9 17 13 12 8 9 8 8 9 8 8 8 8 9 9 9 9 9 10 12 12 11 12 14 14 14 27 78 82 80 78 70 66 64 62 60 60 64 64 71 75 77 71 66 67 69 70 71 68
9 12 9 8 8 9 8 8 8 9 11 9 9 9 9 9 11 12 14 14 15 15 13 14 14 13 15 16 69 91 82 85 75 68 64 61 64 66 70 74 76 78 75 67 68 70 67 68 67
12 9 9 9 9 9 9 8 9 9 9 9 9 9 11 11 14 20 18 18 14 12 13 12 13 13 13 13 14 38 94 88 91 84 71 66 62 67 66 73 73 75 72 66 65 64 67 69 65
12 11 13 12 12 11 10 10 10 10 9 8 9 11 16 17 23 30 33 28 24 19 15 14 14 14 13 13 13 15 18 83 87 88 94 82 67 62 66 70 72 71 72 66 65 65 69 71 63
15 16 15 13 13 12 12 12 11 9 8 9 14 31 31 26 29 31 26 28 28 28 26 24 21 17 19 18 16 16 18 27 78 88 91 92 81 66 66 70 68 67 70 68 67 66 68 72 62
16 18 18 15 12 13 12 14 13 9 9 29 38 42 40 41 35 37 35 28 25 24 23 21 21 24 23 22 21 20 16 17 34 66 88 95 80 74 71 74 72 65 73 81 79 74 74 76 69
22 21 24 18 15 13 12 19 13 8 22 42 44 43 42 42 42 37 32 29 29 26 23 22 22 20 21 23 24 24 24 17 15 18 50 86 94 78 74 79 78 69 78 83 85 82 76 78 74
27 30 27 21 13 11 12 16 12 17 38 50 51 47 44 38 34 35 34 31 27 28 31 30 30 29 25 24 24 26 27 31 20 20 34 70 93 92 79 78 81 84 86 88 83 86 82 82 83
26 28 22 19 14 17 19 21 18 46 49 57 58 53 49 47 46 42 37 34 32 34 38 39 39 44 41 35 30 28 29 31 32 22 18 64 82 94 84 80 80 85 93 95 84 86 84 82 80
28 26 22 21 19 20 22 20 41 55 57 64 64 63 62 61 59 54 50 46 44 46 48 50 49 47 54 49 42 37 34 32 33 26 17 30 80 88 93 86 82 84 91 85 81 88 87 87 83
29 23 26 25 21 22 22 36 55 54 61 66 70 71 72 68 66 64 60 57 59 61 59 55 57 60 64 61 57 53 46 40 34 33 19 24 55 90 92 92 81 82 90 86 81 85 88 89 84
26 24 24 26 28 29 29 36 59 54 59 67 75 76 78 82 83 76 70 70 66 65 61 62 65 70 69 65 65 59 56 49 49 42 32 37 62 61 96 97 92 78 84 89 84 84 84 89 84
33 22 24 33 41 49 35 59 61 60 68 70 79 84 83 86 84 77 76 69 66 68 69 76 80 82 82 80 80 77 73 64 50 54 47 35 61 71 74 99 96 89 77 87 81 87 85 85 77
26 26 31 33 40 46 42 66 62 61 73 80 80 86 85 86 82 73 71 72 72 76 79 86 86 89 98 97 99 94 99 96 98 64 54 46 38 52 69 80 100 98 84 82 84 90 94 88 79
25 31 38 41 47 75 48 55 79 89 89 80 82 86 87 83 80 73 74 80 80 84 95 90 88 85 94 93 99 100 99 100 100 94 53 51 43 36 41 74 85 99 94 85 89 85 91 91 86
28 46 75 77 84 74 44 60 90 85 81 82 84 84 90 86 83 81 83 85 92 98 95 95 88 91 100 100 99 99 100 99 98 99 74 66 48 42 48 48 72 86 99 92 91 93 93 91 92
36 44 70 75 80 78 44 61 91 78 75 78 82 87 92 93 94 86 89 91 96 98 96 94 92 96 98 97 99 100 100 100 99 98 93 72 50 43 64 58 55 88 86 100 92 96 98 98 99
35 45 35 59 62 88 80 87 75 72 78 86 87 88 93 97 95 92 87 92 99 96 100 96 98 98 95 100 98 100 100 100 100 98 100 99 68 58 93 74 46 58 73 100 99 97 100 99 98
30 30 55 80 77 91 85 91 95 94 95 91 93 95 91 88 90 90 89 94 99 99 99 97 98 98 100 100 100 96 100 99 100 100 99 98 97 98 100 58 50 74 98 91 98 99 100 97 100
41 45 57 64 80 90 96 88 88 91 96 96 94 86 87 85 90 87 92 87 86 97 92 98 98 96 96 99 97 97 100 100 100 100 99 99 97 100 99 84 66 65 98 97 100 100 99 97 99
39 49 52 86 75 88 93 90 88 91 87 85 86 81 85 79 77 75 82 93 78 75 86 89 98 96 97 99 92 96 97 98 99 100 100 100 100 97 94 73 63 95 96 100 98 100 100 99 100

GFSSGP_850_rhum_135.txt.gz
RH
20 22 20 20 25 31 27 19 13 13 9 10 29 42 52 50 49 72 57 61 61 60 59 58 53 50 48 48 46 44 42 44 45 50 56 59 59 56 50 51 49 47 44 42 43 43 53 63 66
24 22 20 21 32 32 26 24 18 17 10 22 20 29 44 52 55 48 56 70 71 72 71 68 68 68 59 53 52 45 42 41 46 52 58 60 62 59 56 54 52 49 49 54 58 58 60 61 62
21 22 22 38 47 35 32 22 21 16 16 13 27 26 30 35 27 30 54 73 76 79 80 79 75 68 69 61 57 48 46 44 48 52 60 63 64 62 59 56 55 56 59 63 67 66 66 65 69
20 22 23 36 35 27 20 19 19 14 16 25 26 28 19 23 18 17 22 35 33 51 74 80 76 82 71 71 66 53 48 48 51 54 62 65 66 65 62 59 58 59 60 64 66 67 68 69 70
19 21 35 38 30 23 15 13 13 12 14 27 28 29 18 9 9 10 14 43 34 24 26 47 56 64 78 81 70 64 54 51 52 55 61 65 67 69 66 63 61 62 63 62 64 66 64 69 69
18 21 32 32 24 18 13 10 10 9 8 8 26 19 12 9 8 8 9 9 19 25 12 23 47 55 65 73 84 72 61 55 53 55 62 68 68 71 71 67 64 64 67 63 65 66 64 68 70
20 26 27 25 21 13 8 12 9 10 8 8 15 29 12 9 9 8 8 8 9 10 10 14 59 82 82 83 84 84 75 61 56 54 55 62 67 72 75 72 69 67 69 66 67 66 66 70 71
9 19 16 15 16 12 8 8 7 7 8 7 7 10 12 9 10 10 9 8 8 10 11 12 33 48 77 94 100 97 89 73 61 58 55 55 59 69 78 78 74 71 72 67 66 65 67 74 76
9 16 18 14 10 8 8 8 8 7 7 7 8 9 10 11 12 10 10 10 10 11 13 14 14 17 25 36 68 95 92 86 75 67 62 59 59 60 70 81 79 75 74 68 65 64 67 72 76
10 16 13 12 9 10 8 8 8 8 9 8 9 9 13 12 14 11 12 11 11 11 12 13 13 14 14 14 20 55 88 99 87 75 70 65 62 61 63 75 82 80 77 71 65 63 69 70 73
11 12 10 8 8 10 9 9 9 10 10 9 10 14 14 15 15 16 20 20 17 17 18 14 13 13 13 13 13 13 28 80 99 97 83 73 68 67 66 71 84 84 82 77 70 67 70 69 71
14 11 10 10 12 10 10 9 10 10 9 12 14 18 18 16 23 28 26 23 19 16 18 17 15 12 12 12 14 14 14 15 28 73 97 92 76 70 70 68 76 85 83 78 70 65 64 70 72
14 16 16 14 14 13 12 11 11 10 12 16 21 21 25 30 35 34 32 28 25 22 19 20 21 20 18 15 13 14 15 14 16 20 70 98 95 80 71 70 75 85 83 78 72 66 64 69 71
18 18 16 13 13 14 13 13 10 13 18 26 26 34 37 38 41 35 29 28 26 24 21 20 19 19 18 19 19 17 15 15 15 16 22 63 94 96 84 71 74 82 84 78 71 66 65 68 71
17 21 20 14 16 13 12 13 14 26 26 37 42 43 42 42 38 35 35 33 31 29 27 25 22 21 21 19 18 17 19 18 17 15 16 19 44 89 99 89 72 75 83 81 78 71 75 72 73
25 24 23 13 15 14 14 20 27 27 24 49 49 49 46 43 42 39 38 35 33 31 28 27 26 23 21 21 21 18 17 18 22 20 17 17 22 35 84 99 86 76 84 82 81 78 76 76 75
29 26 27 24 15 12 14 17 49 44 42 57 56 54 50 45 41 41 41 40 37 35 33 32 32 32 32 30 28 26 22 20 20 26 24 19 18 18 47 93 93 80 74 81 86 87 83 78 77
26 28 27 25 17 18 18 22 53 55 53 63 62 58 55 51 51 49 44 44 42 40 40 40 40 41 42 43 42 40 37 31 26 24 33 34 21 18 41 73 99 95 74 74 77 85 88 88 78
32 33 34 27 20 22 23 26 59 62 64 69 69 67 63 58 57 53 49 49 47 46 47 48 49 52 52 51 51 50 49 44 35 30 30 42 31 30 37 73 84 94 90 65 76 83 82 91 87
36 39 38 25 23 24 26 38 62 60 70 74 76 74 71 61 54 56 56 54 55 56 57 59 61 61 62 65 67 65 65 60 48 40 32 38 41 42 46 83 76 99 90 79 73 77 88 88 85
36 38 29 28 30 31 30 45 70 63 69 73 80 80 78 78 75 67 66 64 63 65 68 68 68 67 68 71 73 69 68 73 74 55 45 36 40 43 58 61 68 79 99 93 79 76 84 82 80
40 29 28 28 40 48 34 60 64 70 76 73 82 84 81 78 76 74 71 70 74 76 73 75 71 72 77 82 85 92 100 100 96 91 66 50 47 44 58 73 78 78 84 99 85 77 77 80 72
34 26 31 34 41 45 45 65 60 71 77 80 83 86 83 81 79 75 75 80 79 78 81 83 80 77 91 98 100 100 100 98 98 100 98 70 48 48 48 64 76 99 77 99 94 84 80 78 76
27 32 37 51 52 73 43 52 66 83 89 83 82 87 86 82 79 77 79 83 81 82 84 90 87 87 94 98 100 100 100 100 100 97 100 100 62 47 52 55 51 54 83 70 95 96 77 77 78
30 41 69 73 87 74 50 65 74 87 83 83 87 90 91 83 82 82 82 84 84 85 88 90 93 94 92 88 100 99 99 99 100 99 98 100 99 62 47 57 51 41 41 74 80 97 92 76 78
39 41 64 80 80 70 49 60 80 78 78 83 84 88 86 78 81 85 80 78 90 98 97 93 99 97 91 97 96 100 100 100 100 100 99 98 99 97 55 53 52 44 37 35 74 91 99 85 74
34 47 39 57 63 89 78 85 86 76 82 86 87 87 82 75 84 82 80 72 75 96 100 99 98 94 94 98 95 98 97 98 98 98 100 99 100 99 94 97 68 41 34 36 34 78 82 99 80
35 33 74 84 92 85 86 92 88 95 91 92 95 90 80 68 73 72 80 78 64 78 98 100 99 95 96 98 93 93 98 100 100 97 100 100 98 99 97 99 95 62 35 60 54 53 71 99 92
53 53 59 60 77 87 96 87 88 88 91 96 94 86 78 70 71 77 77 81 65 67 79 97 95 92 95 98 96 98 97 100 100 99 99 100 100 97 97 98 98 78 58 68 67 90 75 85 99
48 60 62 98 74 94 94 89 85 88 88 88 87 80 78 69 72 76 74 72 71 63 60 74 80 92 100 98 97 97 99 100 97 99 98 100 100 98 93 96 97 92 92 100 100 98 100 80 99

GFSSGP_850_rhum_141.txt.gz
RH
20 21 21 20 19 17 21 19 16 16 42 48 52 44 49 54 51 60 88 84 81 74 71 70 68 68 66 66 64 62 61 61 62 61 60 57 54 53 52 50 47 43 45 48 53 50 52 57 68
22 22 20 20 19 17 22 17 17 18 21 29 34 38 35 32 43 52 74 97 87 85 86 86 85 81 80 75 71 64 61 62 63 63 63 61 57 54 51 51 52 48 46 45 42 42 44 54 63
20 21 21 25 27 24 20 12 15 18 26 21 28 23 26 26 17 26 80 90 93 89 83 75 78 85 83 82 80 74 69 63 64 66 67 64 61 57 53 53 56 52 49 45 46 46 48 57 62
19 21 22 19 21 20 14 12 12 15 25 28 23 15 15 16 14 23 71 44 52 62 76 74 74 86 92 92 88 84 77 76 69 70 71 69 66 64 59 56 56 53 54 54 55 56 59 62 63
18 19 25 28 25 19 14 11 10 13 20 22 22 12 14 12 12 11 14 30 30 17 42 64 70 81 86 90 95 93 87 80 74 79 77 75 72 69 66 61 58 58 60 57 59 57 59 61 63
17 20 22 27 23 16 13 12 10 10 13 13 12 12 16 13 11 11 12 11 15 19 26 53 71 75 72 96 98 96 96 89 82 78 82 78 75 73 70 68 65 66 64 64 61 59 62 61 60
17 17 22 23 20 11 8 11 8 10 9 12 17 14 16 13 14 15 14 14 14 15 21 36 43 44 48 58 88 92 96 97 90 83 80 85 82 76 74 72 70 71 69 68 68 63 62 62 58
11 16 19 18 17 11 8 9 8 8 9 8 9 13 17 20 20 17 15 12 12 11 12 12 13 13 13 14 17 36 74 87 94 90 86 82 84 84 81 76 75 74 74 71 72 70 66 64 61
9 11 14 13 12 10 8 8 8 8 8 11 16 17 28 23 20 18 14 11 12 12 11 12 12 11 11 11 11 12 13 24 51 77 87 87 85 82 81 82 77 76 76 74 73 75 70 67 65
10 11 10 10 11 9 10 9 9 8 10 20 23 23 25 24 19 13 12 12 13 14 14 14 14 13 12 13 14 13 12 12 12 15 32 70 88 86 82 80 82 80 78 78 76 77 75 75 69
13 10 11 10 11 13 10 10 9 10 11 19 26 28 26 22 19 19 21 21 21 19 20 19 18 18 16 15 16 16 16 16 15 14 13 14 18 61 84 86 82 82 82 80 82 83 82 75 71
13 13 14 16 14 16 13 11 11 19 47 42 33 33 31 25 25 26 26 26 25 24 24 22 21 20 20 19 18 17 17 18 18 18 18 15 14 15 23 57 84 84 83 88 82 83 83 78 70
14 16 17 14 14 16 15 14 18 55 56 48 44 40 36 35 34 34 32 31 29 27 26 25 24 24 22 22 21 21 20 19 19 19 19 18 17 15 16 32 61 82 84 84 89 83 82 81 73
20 20 18 18 16 17 16 17 20 57 54 49 42 43 43 41 39 38 36 34 32 30 29 29 28 27 26 25 24 24 23 22 22 21 21 20 17 17 17 17 47 56 66 88 86 86 79 80 76
22 21 17 16 17 15 17 20 46 56 50 50 52 51 49 49 46 41 41 40 38 35 34 33 32 31 29 27 26 26 25 25 24 23 22 23 22 18 16 18 20 31 46 50 91 95 86 83 78
21 22 18 15 15 15 15 21 45 54 52 58 59 55 52 49 47 46 46 44 43 40 39 40 40 38 36 33 32 32 32 32 33 32 30 28 28 26 21 18 19 25 53 80 83 94 99 86 77
25 20 26 23 19 16 19 22 44 56 55 60 64 58 53 48 47 47 47 45 44 43 42 40 40 40 39 39 41 41 41 42 42 40 39 38 37 36 32 24 20 23 32 71 88 87 99 99 86
26 28 28 28 22 22 25 23 51 61 58 63 65 64 60 56 56 54 53 50 49 48 48 47 47 48 49 50 50 49 49 49 48 47 45 43 41 42 40 34 25 22 39 70 98 99 98 98 97
28 33 34 30 25 29 28 23 48 61 62 65 67 67 68 61 59 57 56 55 54 55 53 53 53 54 55 56 57 53 53 51 49 50 50 50 48 46 46 41 35 28 45 85 98 98 86 99 99
34 36 36 32 28 29 25 25 48 57 63 68 67 68 73 68 62 58 57 56 57 55 55 55 57 59 62 66 67 77 79 77 75 72 77 64 59 60 56 50 43 42 58 66 95 97 100 97 88
35 38 37 34 29 29 33 29 52 60 71 75 75 75 73 71 70 63 59 57 56 57 58 60 62 64 68 72 78 85 94 99 100 94 90 94 89 97 90 71 58 56 99 78 92 92 76 69 98
35 29 32 34 35 37 33 38 37 58 66 69 74 77 81 79 75 68 62 55 54 56 60 64 64 64 65 68 76 99 100 100 99 88 89 98 96 100 100 98 77 67 98 88 93 91 94 67 72
30 29 33 34 37 44 38 45 42 65 67 69 72 80 85 84 80 74 66 56 52 57 64 64 60 67 70 73 98 100 100 99 100 100 99 95 91 96 98 99 99 96 85 62 78 97 99 98 86
30 32 38 50 45 50 37 39 36 57 64 70 76 84 85 77 74 70 66 55 49 57 63 52 57 74 72 78 97 100 100 100 100 100 100 99 99 100 97 99 97 99 99 59 76 92 98 90 88
32 39 47 51 60 48 46 49 36 60 66 66 80 85 82 71 69 65 64 57 49 50 53 47 61 74 77 81 85 100 100 100 100 100 99 100 98 99 98 99 99 97 99 66 70 85 100 82 71
36 37 44 70 60 50 38 50 48 66 74 78 84 83 74 66 66 63 64 60 49 48 52 50 54 74 82 83 79 93 100 100 100 100 100 100 100 100 100 99 99 98 98 94 70 58 73 88 65
35 44 38 51 49 71 52 50 77 73 76 81 84 87 74 69 68 62 57 52 48 43 41 46 51 76 85 87 85 86 95 100 100 98 99 100 100 100 100 100 100 100 98 87 70 64 54 68 51
31 32 49 63 82 71 59 72 71 90 84 88 94 91 75 70 67 61 57 52 46 39 31 34 48 63 84 91 93 90 90 98 100 100 100 100 98 99 100 100 100 100 99 100 91 71 44 80 33
39 48 58 58 61 77 77 67 76 92 93 94 90 87 75 69 68 64 59 52 43 32 24 22 25 37 54 88 96 97 91 93 98 97 98 99 100 100 100 100 100 99 100 99 100 78 64 94 93
57 55 61 71 79 88 87 78 76 72 76 80 90 82 76 70 70 66 60 53 39 28 21 17 15 18 26 46 79 97 93 92 97 98 100 95 100 100 100 100 100 99 98 100 100 100 99 100 100

GFSSGP_850_rhum_147.txt.gz
RH
16 22 21 18 13 8 8 9 8 9 17 20 20 22 34 39 43 71 98 99 100 94 90 71 70 70 68 65 63 63 62 64 65 64 60 63 66 66 62 60 60 54 54 58 60 62 66 65 63
15 21 19 14 12 10 8 8 8 17 20 23 23 21 22 28 55 73 87 98 95 93 87 83 82 78 75 73 69 66 63 60 61 67 66 70 71 72 70 67 64 62 55 55 58 61 63 62 63
15 20 15 11 11 11 11 9 11 16 18 16 16 18 20 25 51 65 70 80 82 81 83 78 79 86 83 80 77 74 70 65 63 62 69 70 72 74 72 70 69 64 59 56 56 58 60 60 60
14 14 12 12 11 11 11 11 12 15 15 16 14 16 23 34 47 55 56 55 62 73 78 76 70 67 64 64 79 85 83 78 71 68 68 72 72 75 75 73 72 66 65 59 56 56 53 54 56
11 10 12 11 11 10 8 9 11 12 14 13 12 13 23 34 44 48 50 42 31 27 42 47 54 51 45 44 48 62 81 88 88 78 72 72 73 72 76 76 73 69 65 62 57 55 56 55 57
10 8 10 11 11 10 8 8 12 13 15 14 11 15 22 32 32 40 30 19 19 19 20 23 27 31 38 38 36 42 55 76 86 88 85 76 75 76 75 75 74 72 70 64 60 58 60 62 63
8 9 10 9 11 10 8 8 8 11 12 11 12 13 24 29 33 34 22 14 12 12 11 11 11 12 12 12 13 14 16 26 49 68 85 89 80 80 80 79 76 75 74 68 64 64 64 63 64
7 7 10 10 11 10 7 7 7 7 11 13 14 14 21 32 33 34 36 21 13 12 11 11 10 10 10 10 11 11 11 11 12 16 33 78 89 83 79 82 82 78 75 73 70 70 69 67 62
6 8 9 10 11 9 6 7 7 7 8 15 19 25 31 33 31 29 31 36 41 27 14 13 12 12 12 12 12 13 14 13 12 12 12 13 41 77 86 89 93 89 84 79 75 75 76 75 74
8 9 9 6 7 7 7 7 8 7 10 16 22 28 29 28 27 27 28 33 38 41 21 16 15 14 15 15 15 15 14 15 16 16 14 14 14 14 14 38 77 85 80 78 78 78 77 80 88
8 9 7 7 7 7 6 6 6 6 7 14 18 28 29 29 29 27 29 33 38 44 35 21 19 18 18 19 20 20 20 19 18 17 15 16 16 16 16 17 18 22 78 85 90 75 78 78 83
11 9 9 8 9 9 8 8 8 14 27 27 28 29 28 27 30 32 34 35 40 46 48 25 23 23 22 23 25 25 25 24 26 23 23 21 20 19 18 18 19 23 44 37 85 89 91 92 77
9 9 9 8 9 9 9 9 8 22 26 28 30 29 29 29 31 35 38 40 46 49 54 30 28 27 27 27 26 26 26 28 25 25 26 27 23 23 24 23 21 21 30 68 63 59 84 92 94
12 10 9 8 8 8 9 8 13 24 26 26 27 27 29 32 35 38 43 47 50 51 53 32 31 30 29 29 29 28 30 30 28 34 46 32 31 28 25 26 26 30 38 52 65 75 68 84 86
13 13 9 9 9 9 11 10 13 27 25 25 26 29 32 37 38 45 51 50 51 52 59 44 45 39 37 37 36 39 52 47 53 55 65 65 61 67 53 48 37 34 40 44 48 67 83 73 80
13 12 13 9 9 10 10 11 19 24 23 23 24 29 34 40 43 50 54 53 53 55 63 65 61 60 44 43 47 57 70 68 73 76 79 82 89 95 93 87 86 79 62 66 68 64 79 81 84
14 14 11 11 10 10 11 12 19 22 22 21 25 30 34 40 44 51 53 54 57 58 68 72 75 78 56 64 76 74 75 76 78 80 79 83 93 98 99 99 97 97 94 83 78 67 72 96 88
18 15 13 13 11 13 13 13 15 21 21 21 26 33 36 37 41 51 55 59 60 63 71 73 76 79 77 78 76 74 76 78 80 81 84 94 98 100 100 100 99 100 100 96 90 82 75 86 94
16 16 15 12 10 14 15 14 12 20 21 23 28 30 32 39 44 50 56 57 62 65 70 72 72 77 78 74 81 77 79 80 81 83 88 96 99 99 100 100 98 99 98 100 100 96 86 79 84
16 17 16 13 13 18 15 14 12 16 21 21 26 29 33 39 43 50 52 56 60 64 69 69 71 76 78 82 85 84 87 83 84 84 92 96 99 99 98 99 99 99 99 100 99 98 99 91 74
17 18 17 16 13 14 15 17 13 15 21 26 32 32 38 42 45 49 52 55 57 63 67 67 72 75 80 92 85 89 87 86 87 93 97 99 100 99 100 100 99 98 99 97 98 100 99 99 94
18 16 18 18 18 19 16 23 13 17 24 30 33 38 39 44 49 50 53 54 55 62 66 68 72 73 78 92 95 99 97 96 98 100 100 100 100 99 99 100 100 100 100 98 98 98 99 99 99
16 20 19 18 20 20 17 20 15 19 23 27 31 38 45 50 53 52 55 57 54 59 65 71 71 70 83 92 100 99 100 100 100 100 100 100 100 100 100 100 100 100 100 98 95 98 97 99 96
18 20 20 21 23 32 18 18 17 18 23 22 31 42 46 50 52 54 57 59 58 60 66 71 68 67 82 94 99 100 100 99 93 99 100 100 99 99 99 99 99 100 100 100 99 96 98 97 96
21 20 27 25 32 31 21 24 19 25 32 31 41 46 49 53 54 54 63 68 66 65 50 65 67 65 79 93 98 98 96 96 92 99 100 100 100 100 98 99 99 99 99 100 100 100 99 97 95
19 21 25 28 30 27 18 23 25 36 40 43 49 60 51 57 60 68 52 73 70 40 22 30 69 66 75 87 97 97 88 96 98 98 100 100 100 100 99 100 100 100 99 99 98 99 97 97 91
18 23 23 35 28 36 26 19 40 35 42 45 48 56 58 56 62 78 51 76 78 30 17 17 44 31 44 68 94 92 80 92 92 98 100 100 100 100 98 98 100 100 99 99 100 98 95 94 92
20 16 30 29 54 41 22 24 44 73 46 51 96 60 72 62 62 83 49 65 79 26 15 10 13 10 10 28 89 59 57 87 94 93 98 100 100 100 100 99 100 100 100 100 100 100 97 100 99
21 26 23 23 28 43 46 41 37 89 99 96 100 98 100 87 69 88 62 48 54 34 15 10 8 8 7 11 51 16 17 52 85 91 94 96 98 100 100 98 100 98 99 100 100 100 100 100 100
22 25 22 36 37 39 64 72 45 34 37 52 82 96 94 96 80 60 63 56 42 27 16 12 9 9 10 13 10 9 10 13 22 44 88 98 99 98 97 98 96 95 96 96 98 100 100 100 99

GFSSGP_850_rhum_150.txt.gz
RH
8 17 20 18 17 13 11 8 7 10 16 18 27 34 51 59 65 96 99 99 98 87 82 73 74 76 75 73 68 65 62 60 60 60 60 60 64 70 69 61 59 58 56 60 62 61 66 69 64
9 15 18 16 17 15 10 8 12 19 20 22 20 22 27 48 66 79 88 83 81 90 86 82 79 77 73 71 71 71 68 64 60 58 61 60 60 65 69 69 65 64 61 54 59 62 57 67 64
11 15 16 15 14 13 12 9 15 18 16 14 16 18 24 32 55 62 68 78 75 75 74 66 66 67 64 64 68 72 75 74 69 64 62 66 64 66 69 73 71 70 66 61 55 59 60 64 63
9 12 14 14 14 11 11 11 12 14 13 15 15 22 32 46 50 54 53 57 54 50 36 46 46 38 31 28 29 32 47 64 81 79 70 66 67 68 70 72 75 77 73 69 62 58 56 60 60
7 10 13 14 11 10 8 9 10 12 12 12 13 22 32 43 46 49 49 36 24 23 22 18 17 16 17 20 26 28 35 44 57 76 84 77 74 75 73 74 76 76 76 73 70 66 59 55 57
6 8 11 12 10 8 8 8 10 12 13 13 16 21 28 30 38 41 22 14 12 11 12 11 13 12 11 10 10 10 12 14 19 31 52 74 83 77 78 79 76 74 74 74 73 69 66 60 59
7 9 11 10 12 10 9 8 9 11 12 12 12 19 28 29 33 41 21 13 11 11 10 10 10 10 10 10 10 10 10 10 11 11 12 25 69 85 78 77 82 81 76 74 73 72 67 64 64
6 7 10 10 10 10 7 7 8 8 12 13 17 18 25 31 32 36 36 25 18 14 12 12 11 11 11 11 12 12 12 13 12 11 11 11 12 40 79 84 76 75 81 82 77 72 68 71 71
8 9 10 9 10 8 7 7 7 7 10 18 24 28 30 31 30 30 32 35 41 34 17 13 13 14 14 13 14 14 14 15 14 14 14 13 12 11 12 25 47 76 78 79 83 83 74 73 75
9 11 9 7 7 7 7 7 8 7 11 16 23 26 27 26 26 26 27 34 38 45 36 19 15 14 14 15 16 16 18 19 19 20 14 16 16 16 17 15 14 16 19 42 76 76 80 79 76
9 10 8 7 9 7 6 6 6 7 9 14 20 25 25 26 27 25 28 33 39 47 42 24 19 18 18 19 19 20 22 23 25 24 25 23 20 17 16 16 15 16 20 24 25 72 76 77 80
10 8 8 8 8 9 8 8 8 16 25 23 24 25 26 24 28 30 33 36 44 49 44 27 24 22 22 22 22 24 24 25 26 26 26 25 23 23 23 23 21 19 20 22 54 52 50 88 86
8 8 8 8 8 8 9 9 8 22 23 24 26 25 25 26 28 35 37 42 47 49 44 30 27 26 26 26 25 25 24 25 26 28 33 36 30 27 26 25 23 24 25 29 43 68 70 60 81
10 10 9 8 7 7 8 8 8 21 22 23 24 24 26 29 31 36 43 48 50 50 42 33 31 29 28 27 26 26 28 29 31 36 46 56 58 52 46 42 35 28 28 32 48 48 55 74 72
13 14 11 8 8 8 10 11 9 23 21 21 21 23 27 32 34 44 49 50 51 52 46 39 39 34 31 30 30 31 33 35 37 48 54 58 66 72 77 70 67 63 52 44 39 43 48 67 84
15 14 15 9 8 9 9 12 20 22 20 20 21 24 28 34 39 48 51 52 53 56 60 60 52 44 35 35 37 39 48 44 60 58 60 70 80 82 86 86 86 96 93 79 62 61 58 53 73
14 19 14 11 8 9 10 12 18 20 18 18 20 24 29 34 40 48 49 54 54 60 65 66 61 50 38 47 43 47 51 55 58 63 71 78 79 79 85 96 98 99 97 94 90 86 84 76 65
18 17 15 14 11 11 13 12 18 19 18 17 20 24 31 33 37 48 52 59 59 64 66 68 70 64 55 64 51 60 62 65 74 77 80 85 86 93 98 98 98 99 97 94 91 93 90 98 90
18 17 13 10 8 10 13 14 12 16 18 19 21 27 30 34 41 47 54 57 60 64 67 66 68 70 69 61 58 60 59 73 71 74 76 75 92 96 98 100 99 96 98 99 98 99 99 88 94
16 16 14 12 10 13 15 16 11 10 19 18 21 24 28 35 39 46 50 56 60 65 68 66 68 71 75 66 79 76 72 75 79 72 67 80 94 98 98 97 98 98 98 97 97 97 98 98 95
16 17 16 15 13 11 12 13 12 11 17 18 21 26 31 35 40 46 50 55 56 63 67 67 68 70 76 78 70 55 60 66 70 70 80 94 100 100 99 100 100 100 99 98 98 98 98 98 97
18 14 16 16 18 19 11 21 12 16 19 22 28 32 34 40 45 47 50 54 54 61 66 70 68 68 78 86 64 58 72 75 82 84 84 98 100 100 100 99 100 99 99 100 99 100 100 99 100
17 14 18 18 16 18 17 21 14 13 23 28 29 34 39 44 48 49 53 55 54 60 63 67 64 65 78 91 74 62 88 84 84 83 92 85 95 100 100 100 96 100 98 97 98 99 100 97 100
15 16 17 20 23 36 24 23 19 21 24 28 30 36 43 46 50 50 56 57 59 62 50 61 62 63 75 85 82 78 77 88 80 95 94 88 99 100 100 100 96 100 100 100 99 97 100 100 91
19 23 36 34 37 37 19 24 21 31 32 31 39 40 45 49 49 51 60 67 66 57 28 47 61 61 58 60 74 65 76 82 94 98 92 83 94 100 100 100 95 100 100 99 100 100 100 100 100
21 20 32 31 37 32 21 24 30 33 34 34 42 44 46 54 55 62 58 72 72 46 24 19 43 31 29 30 68 62 40 76 99 97 93 84 98 100 100 100 96 96 100 100 100 100 100 100 94
14 19 17 31 31 41 27 19 35 35 40 42 48 54 47 51 62 70 60 76 76 44 20 11 14 8 9 15 48 53 21 42 88 96 88 80 94 99 100 97 92 95 95 98 98 100 100 100 100
18 13 29 35 49 44 26 29 58 70 48 50 85 54 61 54 59 69 59 73 73 40 18 10 8 7 7 10 28 15 14 22 38 60 70 84 88 96 100 100 94 94 96 99 100 100 100 100 100
15 22 25 23 30 46 52 50 48 78 95 90 100 63 70 67 66 79 71 54 65 39 18 10 8 8 8 9 11 9 12 16 22 18 19 55 85 94 95 100 100 99 96 95 100 98 98 100 100
15 21 24 47 38 44 65 66 40 35 56 52 84 70 72 92 81 74 76 52 56 35 19 13 13 15 13 18 17 19 18 18 15 12 14 15 17 46 82 97 100 99 96 95 94 96 96 98 99

GFSSGP_850_rhum_153.txt.gz
RH
5 11 19 20 29 31 27 17 19 25 28 45 59 66 73 82 80 98 100 96 88 82 80 80 79 76 72 70 70 68 67 64 61 59 59 59 61 64 66 67 64 62 60 59 58 60 64 62 67
9 14 19 18 30 33 26 24 28 27 24 23 28 35 46 62 86 97 88 79 97 95 95 86 77 72 64 58 53 56 61 66 67 64 60 61 61 62 66 67 68 70 67 64 61 59 61 58 62
9 10 18 28 30 31 21 24 21 16 15 16 21 28 38 51 63 72 73 72 79 80 75 64 54 40 29 22 20 19 23 31 49 68 71 66 65 66 65 69 71 70 74 71 67 64 62 59 59
9 12 15 23 24 13 15 19 17 15 13 16 25 38 46 51 54 57 61 72 51 39 44 34 22 18 14 14 14 14 16 21 29 46 65 78 74 71 71 70 70 72 72 74 73 70 65 63 61
7 8 22 24 21 11 10 10 15 16 18 17 20 36 47 50 54 54 54 33 26 23 18 14 13 11 9 9 9 8 9 9 10 15 27 49 73 81 77 75 73 72 71 72 71 72 72 68 62
8 9 20 21 16 11 10 9 13 16 20 23 30 30 38 42 44 38 25 18 15 12 11 10 10 10 9 9 9 10 9 9 9 9 10 12 25 54 83 80 79 80 76 73 73 71 70 69 66
9 13 17 16 15 13 10 9 14 15 16 20 21 31 33 35 37 30 20 16 14 12 11 11 11 11 11 11 12 12 12 12 12 11 10 11 11 12 53 80 82 79 80 81 76 73 73 71 70
7 12 12 14 15 12 8 8 8 13 21 21 24 30 33 33 34 34 36 32 23 15 13 12 12 13 13 13 14 14 14 14 14 13 12 14 13 12 12 21 62 82 83 81 75 77 75 73 71
9 14 18 11 12 10 7 8 7 13 18 27 29 27 30 32 32 36 37 38 35 24 16 14 14 14 15 15 15 16 17 18 19 17 16 14 14 16 15 13 13 14 18 34 70 81 80 79 74
11 21 13 9 10 9 8 8 8 13 19 26 29 32 30 27 30 32 30 35 36 29 21 20 17 16 18 18 17 18 19 21 21 22 23 22 20 18 16 16 17 16 15 15 16 20 66 85 79
11 14 10 9 8 8 8 7 7 10 26 21 27 26 26 26 26 28 33 37 41 36 30 24 21 21 20 20 20 21 22 24 24 25 25 24 23 22 22 21 20 19 19 17 18 20 29 53 76
11 9 9 9 9 9 10 9 20 23 26 22 25 26 27 27 28 32 36 39 40 35 30 29 25 24 24 24 24 24 25 24 24 25 30 28 25 23 22 22 21 21 22 23 24 26 32 53 68
11 11 9 8 8 9 9 9 22 26 25 25 25 25 26 29 31 34 40 42 43 34 35 32 28 27 27 26 26 25 24 25 27 28 33 38 41 35 31 30 29 27 26 28 26 28 31 41 40
13 12 12 10 10 8 9 9 14 24 24 24 25 25 27 30 38 39 41 43 45 44 41 40 34 30 30 27 26 25 24 25 26 26 32 39 41 45 52 50 46 42 38 34 34 31 31 36 44
16 19 18 15 12 10 9 12 13 22 23 24 24 26 29 33 35 40 43 46 50 48 48 42 37 33 29 26 26 25 25 25 25 31 38 46 46 49 54 56 59 62 59 54 49 44 40 41 40
20 20 26 17 13 11 10 18 26 22 22 22 24 28 32 36 39 41 44 52 54 54 51 47 40 34 28 26 28 24 24 27 36 39 42 41 48 52 52 54 55 60 57 54 58 59 56 56 54
25 29 25 18 11 12 12 17 28 21 21 22 24 27 33 38 39 48 49 52 55 55 52 50 44 36 32 30 26 24 30 38 42 48 48 54 57 58 61 66 68 70 76 72 65 62 70 70 63
29 25 24 17 12 13 15 16 26 22 20 22 24 29 36 38 46 48 48 52 57 57 55 54 49 41 35 32 22 23 35 41 49 53 56 56 58 63 70 81 98 99 99 100 100 100 96 80 80
20 22 23 20 13 14 18 17 24 22 20 22 28 32 32 42 46 47 49 54 58 58 56 57 55 56 47 38 20 22 32 46 52 56 56 58 61 67 84 100 99 98 98 98 97 97 98 99 92
21 22 23 18 14 15 18 20 18 21 21 20 32 30 37 42 45 49 51 54 58 58 59 62 60 65 56 40 27 30 35 48 53 54 56 60 64 69 90 99 99 98 99 98 98 98 97 96 98
21 21 23 22 18 17 16 18 15 12 21 22 28 29 36 40 47 50 52 54 56 57 58 58 58 64 57 38 25 18 23 38 36 50 55 63 68 80 99 99 96 93 95 99 99 99 99 99 98
26 18 20 23 27 32 16 27 18 19 28 35 37 37 40 45 47 50 52 54 54 56 53 51 59 62 59 36 26 17 25 35 50 55 61 63 71 79 100 100 100 94 98 100 100 100 99 99 98
21 18 20 22 26 26 23 32 22 18 39 41 40 38 41 44 47 50 54 54 54 54 50 48 60 57 51 36 24 20 22 27 48 46 56 66 73 99 100 100 99 95 98 100 100 99 100 100 100
18 20 24 25 30 55 30 34 41 39 42 42 40 44 45 48 50 51 55 55 55 56 43 45 52 43 34 24 19 23 16 22 37 38 52 70 88 100 100 94 86 94 98 100 100 99 100 100 100
18 26 53 60 65 51 25 31 51 44 36 40 52 47 48 50 50 53 56 58 56 56 33 31 32 29 19 22 19 19 15 19 23 36 40 74 92 100 91 83 89 94 96 97 100 100 100 100 99
24 31 60 44 64 50 28 33 70 50 47 48 45 46 47 50 52 53 56 57 62 59 33 22 18 11 12 18 18 14 10 10 15 24 38 84 99 100 90 85 92 96 99 98 100 100 100 100 100
19 25 20 37 43 66 49 37 51 46 54 54 50 48 50 52 54 55 59 61 60 56 30 18 11 6 8 10 13 9 8 8 12 10 17 62 88 95 90 87 90 95 94 94 95 100 100 100 100
22 20 44 67 56 58 46 38 78 72 64 66 70 53 51 55 58 64 65 58 57 51 30 14 8 7 7 9 9 9 8 8 9 9 12 17 24 52 80 86 87 97 99 94 92 94 99 100 100
27 32 28 36 47 67 77 71 62 70 81 74 67 56 53 57 58 60 66 62 58 50 29 12 9 9 10 14 15 13 11 11 8 8 10 14 16 12 16 68 90 93 100 99 94 91 92 94 98
21 24 30 74 52 76 80 79 48 58 61 63 60 53 56 62 64 72 74 68 59 48 26 15 20 26 28 41 38 28 24 19 15 12 12 11 12 9 12 13 26 72 94 100 97 93 95 95 93

GFSSGP_850_rhum_156.txt.gz
RH
8 13 19 20 28 35 32 20 23 31 61 67 69 77 89 90 79 92 100 99 100 95 83 78 80 76 74 71 67 65 64 64 63 63 60 60 60 61 63 64 61 59 58 60 61 59 64 65 65
9 9 18 20 34 36 33 26 36 45 57 45 38 49 63 86 97 99 91 90 98 99 91 84 77 60 42 31 25 27 32 37 53 64 68 66 64 65 64 67 68 66 63 62 62 63 63 66 64
10 9 16 31 39 33 32 25 22 41 39 21 34 43 49 65 76 84 78 82 86 84 70 57 42 29 22 18 18 18 20 23 28 43 64 75 73 73 72 71 71 72 72 68 67 66 68 66 64
8 11 18 27 25 20 20 23 16 19 19 22 37 48 51 58 67 72 73 75 74 61 45 28 21 17 14 12 10 9 9 10 12 16 28 45 65 79 78 76 76 74 74 76 76 74 70 70 68
8 9 22 25 22 17 11 15 17 20 24 29 28 51 56 58 64 70 69 63 36 25 22 18 13 10 9 9 9 9 9 8 8 8 10 13 23 45 76 82 79 78 77 76 77 78 76 72 71
8 11 20 20 17 13 11 18 19 20 26 28 38 40 50 55 57 57 44 26 16 13 13 13 11 10 11 10 11 11 12 12 12 12 11 10 11 13 32 69 85 81 79 79 81 79 78 76 74
10 14 14 15 16 13 10 14 18 22 23 27 26 39 52 46 43 27 20 19 18 18 18 18 16 15 14 13 13 14 14 15 14 14 14 13 13 11 11 16 44 73 84 81 79 80 83 83 78
8 14 12 13 17 12 9 9 16 20 25 27 26 39 49 40 34 35 40 37 32 25 21 19 18 17 16 15 15 16 17 17 17 17 16 16 15 15 15 12 12 16 41 62 74 77 78 82 89
9 17 19 11 11 10 8 8 17 22 24 29 29 29 29 37 40 41 41 40 36 28 22 20 18 18 18 18 18 18 18 19 20 20 19 19 18 18 17 16 16 15 15 15 17 23 56 78 80
14 22 13 10 10 10 8 8 11 20 28 33 32 31 33 38 42 43 43 38 34 28 25 22 20 21 22 21 21 21 21 22 22 23 23 22 22 22 22 22 21 19 17 17 17 17 19 25 45
12 16 12 9 8 9 10 8 13 20 26 30 34 33 39 44 41 39 40 36 33 33 29 24 25 25 25 24 24 24 23 24 24 24 23 23 22 21 20 20 20 20 21 21 20 19 19 22 28
11 10 10 9 9 9 10 12 26 24 22 22 28 28 30 33 35 36 37 37 37 35 29 29 28 28 27 27 26 26 25 24 23 23 22 22 21 20 20 20 20 21 20 20 21 21 22 24 25
14 13 12 11 10 9 8 12 26 29 24 24 27 28 29 30 34 38 40 41 37 33 34 32 34 33 30 28 27 25 24 24 24 22 21 20 21 20 22 23 23 23 25 26 24 23 21 23 26
18 16 16 14 12 12 10 21 19 27 26 27 27 29 29 29 33 35 40 38 34 39 39 40 39 35 30 27 25 24 22 20 19 20 24 28 27 28 26 27 28 29 28 27 27 28 27 26 25
19 22 21 18 16 15 10 14 17 25 26 26 28 32 34 34 39 38 39 36 40 41 43 39 39 33 28 26 24 22 20 18 19 26 30 33 34 34 34 35 34 36 37 36 33 30 31 33 34
22 22 27 19 16 14 10 18 23 25 25 27 30 34 35 36 34 38 39 41 48 49 43 41 36 32 30 28 25 20 18 22 26 31 34 36 38 39 40 41 42 44 46 48 50 47 40 38 36
29 30 28 22 14 12 13 16 28 26 25 29 33 34 36 37 41 43 44 43 45 46 44 40 37 35 32 30 24 19 22 25 32 37 38 39 42 44 46 48 52 56 63 66 76 92 93 80 54
32 30 25 22 13 13 14 16 31 25 24 29 36 41 38 39 45 46 45 44 47 48 45 42 38 36 34 33 25 18 21 24 36 35 35 41 44 48 50 53 59 66 76 80 80 87 95 99 100
28 24 25 22 18 15 18 19 33 26 26 28 38 42 40 42 47 47 46 46 48 49 45 42 36 34 34 30 22 13 12 20 27 27 38 46 52 52 55 56 63 74 88 93 98 98 97 96 98
24 24 25 21 18 18 18 18 27 31 26 28 39 42 44 50 51 50 49 50 51 51 48 47 40 38 34 30 21 15 11 18 21 24 34 49 53 56 59 63 70 82 92 96 95 98 99 99 99
24 25 24 23 21 19 18 21 15 20 25 30 37 40 45 45 50 52 52 52 53 52 49 48 43 37 32 30 21 13 10 11 12 18 26 46 51 57 60 70 72 85 93 93 95 98 100 99 98
29 21 22 23 29 34 18 35 18 21 42 37 42 48 48 49 50 52 52 52 53 50 50 46 41 39 34 27 16 11 8 9 14 17 27 42 51 61 67 66 73 91 91 92 96 99 100 100 98
26 20 21 21 25 27 22 26 24 41 51 50 51 51 48 50 50 52 52 50 51 49 52 45 39 38 34 20 12 10 8 9 11 11 19 33 45 64 69 64 81 93 86 90 97 99 100 100 99
20 21 23 24 30 44 30 31 40 48 50 50 48 52 50 51 52 52 51 52 49 53 55 40 35 34 26 12 11 10 8 7 8 11 18 26 42 69 58 72 88 93 88 91 94 99 100 100 100
20 31 50 56 62 46 27 35 53 59 42 44 56 53 51 50 50 50 53 51 55 60 53 34 30 25 14 10 11 8 8 8 8 10 13 17 34 44 45 82 91 88 84 90 96 99 100 100 99
26 34 58 59 65 45 34 39 70 57 53 51 55 52 49 49 50 52 51 51 57 57 51 33 24 13 8 9 10 8 7 7 9 10 10 10 12 15 40 85 94 88 80 87 95 100 100 100 100
23 37 31 42 49 66 52 61 55 53 58 56 56 50 50 50 51 51 52 56 55 58 51 32 18 8 7 10 8 8 8 7 7 7 8 9 8 7 18 69 88 89 87 86 92 99 100 100 100
21 25 40 69 52 53 52 49 81 74 69 68 71 56 53 51 52 53 56 59 59 59 47 28 13 8 9 12 12 12 12 12 9 8 7 6 5 6 9 18 62 88 91 88 89 97 100 99 96
28 36 32 35 58 66 76 68 65 74 78 74 71 51 50 50 52 55 62 65 62 58 46 24 13 13 16 26 26 25 23 22 16 10 8 6 5 5 8 10 8 17 51 90 90 93 95 91 93
26 31 35 69 50 76 78 77 51 62 62 61 56 46 53 54 55 61 67 66 66 58 45 23 22 32 38 45 42 43 40 40 32 21 12 7 5 5 9 13 10 7 8 13 56 90 98 96 96

GFSSGP_850_rhum_159.txt.gz
RH
9 10 14 21 26 36 32 24 20 51 65 71 68 66 88 96 78 90 100 100 100 100 92 93 80 72 72 67 62 61 59 63 64 63 62 63 63 65 69 73 77 70 65 64 60 55 60 63 66
9 9 18 22 34 36 42 28 45 54 73 58 61 65 73 91 98 99 90 97 99 99 99 91 76 63 47 34 26 21 28 34 39 55 67 70 68 66 67 69 74 79 77 72 68 65 57 57 60
8 9 17 35 43 34 39 26 54 62 34 28 46 52 59 77 87 96 84 91 98 96 84 66 47 32 27 22 19 16 14 13 14 21 29 48 68 75 75 74 73 75 81 82 80 78 73 65 60
8 11 19 29 28 24 26 26 47 51 34 35 47 55 59 69 77 80 82 86 74 64 50 36 24 18 14 11 10 10 8 7 8 8 9 14 28 56 78 83 83 79 79 80 83 82 81 80 75
8 10 22 22 20 19 13 22 28 25 31 36 40 58 62 60 71 75 76 65 52 39 28 21 15 10 10 11 10 10 9 10 10 10 9 8 9 11 30 66 87 86 86 83 81 82 84 83 81
9 12 18 18 16 13 17 20 21 28 35 43 51 51 59 69 72 68 66 52 27 19 17 14 13 12 11 10 11 11 12 12 12 12 12 12 12 11 11 15 42 76 88 87 88 88 84 80 80
11 15 15 15 16 14 17 16 23 26 28 32 35 54 62 65 63 58 41 22 17 16 16 14 13 13 13 12 12 13 13 14 15 15 16 16 15 14 14 14 12 13 32 63 84 84 84 87 85
9 15 14 14 16 14 10 16 20 24 30 30 31 56 62 58 49 30 23 21 20 18 16 15 16 16 16 14 15 16 16 16 16 17 17 18 18 19 19 16 16 16 14 14 22 42 63 81 86
10 19 19 12 12 10 9 11 21 26 28 31 33 38 43 50 38 32 33 33 31 26 21 19 20 21 20 20 19 20 21 21 22 21 20 20 20 20 20 21 22 20 18 18 17 16 16 20 44
16 21 15 11 10 10 10 10 20 25 32 38 43 41 42 44 43 38 37 36 34 30 27 24 25 24 24 24 23 24 24 24 23 22 23 23 22 22 21 21 21 22 22 23 22 20 19 19 18
14 17 13 10 10 9 10 14 18 26 28 34 49 45 48 50 46 40 40 37 35 32 29 27 27 26 26 24 25 25 25 24 24 23 22 21 20 20 19 18 18 18 18 19 20 21 22 22 21
12 11 11 10 9 9 10 16 24 26 24 29 37 40 51 52 46 42 40 40 40 35 31 32 31 30 27 26 26 26 25 23 22 20 19 18 16 16 16 16 15 15 15 16 17 18 18 20 22
15 15 14 12 12 10 10 16 21 29 29 34 40 49 53 46 42 41 40 41 38 34 34 34 34 32 30 28 27 25 22 21 19 18 17 17 17 16 17 18 18 19 19 19 18 17 17 18 19
20 19 20 18 14 11 11 25 22 30 33 34 36 46 45 40 41 41 42 38 36 33 36 36 35 32 29 27 26 24 22 19 18 18 18 20 21 23 24 23 23 24 24 25 25 25 24 22 21
21 23 23 19 18 19 13 24 26 27 30 32 33 37 40 41 41 39 38 34 34 39 41 39 36 33 31 29 26 22 19 18 19 19 22 23 23 22 22 22 25 27 27 28 30 31 34 34 32
27 24 28 19 17 16 12 20 19 29 29 35 38 42 42 44 42 39 36 36 40 42 42 38 37 35 32 30 26 21 18 17 17 19 18 15 16 21 27 31 32 32 33 36 40 42 45 50 46
33 32 29 25 14 14 13 18 24 29 31 39 43 42 42 44 44 43 46 46 47 47 43 40 39 37 34 32 27 19 15 14 13 15 12 14 20 29 35 36 37 37 39 46 54 59 66 71 73
34 32 29 26 18 14 14 16 31 31 31 40 46 44 43 45 45 46 46 49 49 48 45 43 41 37 34 31 25 17 12 10 13 12 12 16 28 35 39 41 42 44 49 60 73 83 88 96 98
30 34 34 26 19 17 20 20 23 32 31 40 50 46 44 44 48 49 51 54 50 47 46 42 39 36 35 30 23 15 10 8 10 11 13 16 26 32 44 45 47 53 63 78 92 96 97 98 98
39 40 34 24 20 21 22 22 22 36 30 36 46 48 45 50 55 56 55 57 51 47 46 41 38 38 33 29 22 13 8 8 8 11 12 17 26 35 48 50 53 61 71 80 83 90 96 94 98
35 35 29 26 21 21 18 24 18 30 29 31 44 43 48 48 53 56 57 56 50 50 46 44 42 37 32 29 20 10 8 6 7 8 12 14 23 34 47 57 58 66 78 77 83 97 100 98 95
49 27 26 26 29 36 20 33 21 23 39 40 46 51 54 52 54 56 56 54 50 48 45 44 41 35 31 28 16 8 6 6 6 8 9 14 21 34 44 63 63 69 73 76 82 100 100 100 100
39 28 27 26 28 28 26 30 26 43 48 47 50 58 56 54 53 55 53 51 48 46 47 44 41 34 32 23 11 8 6 6 7 7 8 11 20 26 31 60 67 70 63 80 89 100 100 99 100
22 23 30 37 33 42 29 25 28 51 49 57 55 58 58 55 55 52 51 51 48 48 47 47 41 34 29 15 9 7 6 6 7 7 6 7 8 12 21 46 68 69 65 76 88 100 100 99 100
21 29 48 55 61 43 30 35 27 60 57 51 61 59 52 51 52 51 48 48 51 50 49 47 39 32 20 11 8 6 6 7 6 6 6 6 6 8 13 37 63 66 71 76 88 95 99 97 100
30 31 51 50 66 47 37 39 63 62 51 49 55 55 57 55 50 49 50 51 52 55 50 50 34 22 12 9 7 6 7 6 6 5 6 6 6 8 11 28 46 56 69 82 87 91 92 95 98
32 38 31 48 52 68 54 59 60 62 64 61 60 55 50 48 49 49 52 53 57 57 57 46 28 16 10 8 8 9 9 8 7 5 6 5 6 8 8 8 9 20 50 86 88 88 88 92 97
25 28 41 67 56 54 52 50 73 79 74 71 74 60 51 48 50 52 54 57 62 61 58 42 26 14 10 10 12 14 15 15 12 8 6 5 6 9 9 8 5 4 10 41 81 91 94 91 91
30 34 38 46 52 63 73 68 60 75 77 72 75 53 47 46 48 52 56 62 65 63 57 41 23 15 14 22 28 29 28 27 21 12 8 7 6 8 11 10 6 4 5 7 11 44 83 93 92
25 35 38 68 49 77 78 63 51 66 66 61 62 49 47 48 50 53 59 65 68 65 57 35 24 27 35 38 40 38 41 47 38 22 10 7 6 6 10 13 9 5 7 10 8 8 9 19 44